[{"header": {"parameterCategory": 1, "parameterNumber": 2, "dx": 0.06612293990616946, "dy": 0.0552356325346848, "nx": 98, "ny": 59, "la1": 35.046912555036876, "la2": 31.78801023549047, "lo1": -121.43107172385933, "lo2": -114.95102361305473, "refTime": "2026041107"}, "data": [6.71, 6.71, 6.26, 6.26, 6.26, 6.26, 6.26, 5.81, 5.81, 5.81, 5.81, 5.81, 5.81, 5.81, 5.81, 5.81, 5.81, 5.81, 5.81, 5.81, 5.81, 5.81, 5.36, 5.81, 5.81, 5.81, 5.81, 6.26, 6.26, 6.26, 6.71, 6.71, 6.71, 6.71, 6.71, 6.71, 6.71, 7.15, 7.15, 7.15, 7.15, 7.15, 7.15, 6.71, 6.71, 6.71, 6.71, 6.71, 6.71, 6.71, 6.71, 6.71, 6.71, 7.15, 7.15, 7.15, 6.71, 6.71, 6.71, 6.71, 6.71, 6.71, 5.81, 4.92, 4.02, 2.68, 1.79, 0.45, 0.0, 0.89, 2.24, 3.58, 4.02, 4.02, 3.58, 3.58, 3.58, 3.58, 4.02, 4.47, 5.36, 5.81, 6.71, 6.71, 7.15, 7.15, 7.15, 7.15, 7.15, 7.15, 7.15, 6.71, 6.26, 6.26, 6.26, 6.26, 6.26, 5.81, 7.15, 7.15, 6.71, 6.71, 6.26, 6.26, 6.26, 6.26, 6.26, 6.26, 6.26, 6.26, 6.26, 6.26, 6.26, 6.26, 6.26, 6.26, 6.26, 6.26, 6.26, 6.26, 5.81, 5.81, 6.26, 6.26, 6.26, 6.26, 6.26, 6.26, 6.71, 6.71, 7.15, 7.15, 7.15, 7.15, 7.15, 7.15, 7.15, 7.6, 7.15, 7.15, 7.15, 7.15, 7.15, 6.71, 6.71, 6.71, 6.71, 6.71, 6.71, 6.71, 7.15, 7.15, 7.15, 7.15, 7.15, 6.71, 6.71, 7.15, 7.15, 7.15, 6.26, 5.36, 4.47, 3.58, 2.24, 0.89, 0.45, 0.45, 1.79, 3.58, 4.02, 4.47, 4.02, 3.58, 3.58, 3.58, 4.02, 4.47, 5.36, 5.81, 6.71, 6.71, 7.15, 7.15, 7.15, 7.15, 7.15, 7.15, 7.15, 6.71, 6.26, 6.26, 6.26, 6.26, 6.26, 5.81, 7.6, 7.15, 7.15, 6.71, 6.71, 6.71, 6.71, 6.71, 6.71, 6.71, 6.71, 6.71, 6.71, 6.71, 6.71, 6.71, 6.71, 6.71, 6.71, 6.71, 6.71, 6.71, 6.26, 6.26, 6.26, 6.26, 6.26, 6.26, 6.26, 6.26, 6.26, 6.71, 7.15, 7.15, 7.15, 7.15, 7.15, 7.6, 7.6, 7.6, 7.6, 7.6, 7.15, 7.15, 7.15, 7.15, 6.71, 6.71, 6.71, 6.71, 6.71, 7.15, 7.15, 7.15, 7.15, 7.15, 7.15, 7.15, 7.15, 7.15, 7.6, 7.6, 6.71, 6.26, 4.92, 4.02, 2.68, 1.34, 0.45, 0.45, 1.34, 3.13, 4.02, 4.47, 4.47, 3.58, 3.13, 3.13, 3.58, 4.47, 4.92, 5.81, 6.26, 6.71, 7.15, 7.15, 7.15, 7.15, 7.15, 7.15, 7.15, 7.15, 6.71, 6.71, 6.71, 6.71, 6.26, 6.26, 8.05, 7.6, 7.6, 7.15, 7.15, 7.15, 7.15, 7.15, 7.15, 7.15, 7.15, 7.15, 7.15, 7.15, 7.15, 7.15, 7.15, 7.15, 7.15, 7.15, 7.15, 6.71, 6.71, 6.71, 6.71, 6.71, 6.71, 6.71, 6.71, 6.71, 6.71, 6.71, 7.15, 7.15, 7.15, 7.15, 7.6, 8.05, 8.05, 8.05, 7.6, 7.6, 7.6, 7.15, 7.15, 7.15, 7.15, 7.15, 7.15, 7.15, 7.15, 7.15, 7.15, 7.6, 7.6, 7.6, 7.15, 7.15, 7.15, 7.6, 8.05, 7.6, 7.15, 6.71, 5.81, 4.92, 3.13, 1.79, 0.45, 0.0, 0.89, 2.68, 4.02, 4.92, 4.92, 4.02, 3.13, 2.68, 3.58, 4.02, 4.92, 5.81, 6.26, 6.71, 7.15, 7.15, 7.15, 7.15, 7.15, 7.6, 7.6, 7.15, 7.15, 6.71, 6.71, 6.71, 6.71, 6.26, 8.49, 8.05, 7.6, 7.6, 7.6, 7.6, 7.6, 7.6, 7.6, 7.6, 7.6, 7.6, 7.6, 7.6, 7.15, 7.15, 7.15, 7.15, 7.15, 7.15, 7.15, 7.15, 7.15, 7.15, 7.15, 7.15, 7.15, 7.15, 7.15, 7.15, 7.6, 7.6, 7.6, 7.6, 7.15, 7.15, 7.6, 8.05, 8.49, 8.49, 8.05, 7.6, 7.6, 7.15, 7.15, 7.15, 7.15, 7.15, 7.15, 7.15, 7.15, 7.15, 7.6, 7.6, 7.6, 7.6, 7.6, 7.15, 7.6, 8.05, 8.05, 8.05, 7.6, 7.15, 6.26, 5.36, 4.02, 2.68, 0.89, 0.0, 0.45, 2.24, 3.58, 4.47, 4.92, 4.92, 3.58, 3.13, 3.13, 4.02, 4.92, 5.81, 6.26, 7.15, 7.15, 7.15, 7.15, 7.15, 7.15, 7.6, 7.6, 7.6, 7.15, 7.15, 7.15, 6.71, 6.71, 6.71, 8.49, 8.49, 8.05, 8.05, 8.05, 8.05, 7.6, 8.05, 8.05, 7.6, 7.6, 7.6, 7.6, 7.6, 7.6, 7.6, 7.6, 7.6, 7.6, 7.6, 7.6, 7.6, 7.6, 7.6, 7.6, 7.6, 7.6, 7.6, 7.6, 8.05, 7.6, 7.6, 8.05, 7.6, 7.6, 7.6, 8.05, 8.05, 8.49, 8.49, 8.05, 7.6, 7.6, 7.15, 7.15, 7.15, 7.15, 7.15, 7.15, 7.15, 7.15, 7.15, 7.6, 7.6, 8.05, 8.05, 7.6, 7.6, 7.6, 8.05, 8.49, 8.49, 8.05, 7.6, 7.15, 6.26, 4.92, 3.58, 2.24, 0.89, 0.89, 2.24, 3.58, 4.47, 4.92, 4.92, 4.02, 3.58, 3.58, 4.02, 4.92, 5.81, 6.71, 7.15, 7.6, 7.6, 7.6, 7.15, 7.15, 7.6, 7.6, 7.6, 7.15, 7.15, 7.15, 7.15, 7.15, 6.71, 8.94, 8.49, 8.49, 8.49, 8.49, 8.05, 8.05, 8.05, 8.05, 8.05, 8.05, 8.05, 8.05, 8.05, 8.05, 8.05, 8.05, 8.05, 8.05, 8.05, 8.05, 8.05, 8.05, 8.05, 8.05, 8.05, 8.05, 8.05, 8.05, 8.05, 8.05, 8.05, 8.05, 8.05, 8.49, 8.49, 8.49, 8.49, 8.49, 8.49, 8.49, 8.05, 7.6, 7.15, 7.15, 7.15, 7.15, 7.15, 7.15, 7.15, 7.15, 7.6, 7.6, 8.05, 8.49, 8.05, 8.05, 8.05, 8.05, 8.49, 8.49, 8.49, 8.49, 8.05, 7.6, 6.71, 5.81, 4.47, 3.13, 1.79, 1.34, 2.24, 3.13, 4.02, 4.02, 4.02, 4.02, 3.58, 3.58, 4.02, 4.92, 5.81, 6.71, 7.15, 7.6, 7.6, 7.6, 7.15, 7.15, 7.6, 7.6, 8.05, 7.6, 7.15, 7.15, 7.15, 7.15, 6.71, 9.39, 8.94, 8.94, 8.94, 8.49, 8.49, 8.49, 8.49, 8.49, 8.49, 8.49, 8.49, 8.49, 8.49, 8.05, 8.05, 8.05, 8.05, 8.05, 8.49, 8.49, 8.49, 8.49, 8.49, 8.49, 8.49, 8.49, 8.49, 8.49, 8.49, 8.49, 8.49, 8.49, 8.49, 8.49, 8.94, 8.94, 8.94, 8.49, 8.49, 8.49, 8.05, 7.6, 7.6, 7.6, 7.6, 7.15, 7.15, 7.15, 7.6, 7.6, 8.05, 8.05, 8.49, 8.49, 8.49, 8.49, 8.05, 8.05, 8.49, 8.94, 8.94, 8.94, 8.94, 8.05, 7.6, 6.26, 5.36, 4.02, 2.68, 1.79, 2.24, 2.68, 3.58, 3.58, 3.58, 3.58, 3.58, 3.58, 4.02, 4.92, 5.81, 6.71, 7.15, 7.6, 7.6, 7.6, 7.6, 7.15, 7.6, 8.05, 8.05, 7.6, 7.6, 7.15, 7.15, 7.15, 7.15, 9.39, 9.39, 8.94, 8.94, 8.94, 8.94, 8.94, 8.94, 8.94, 8.94, 8.94, 8.94, 8.49, 8.49, 8.49, 8.49, 8.49, 8.49, 8.49, 8.49, 8.49, 8.49, 8.49, 8.49, 8.49, 8.94, 8.94, 8.94, 8.94, 8.94, 8.49, 8.49, 8.49, 8.94, 8.94, 8.94, 9.39, 9.39, 8.94, 8.49, 8.49, 8.05, 8.05, 8.05, 8.05, 7.6, 7.6, 7.6, 7.6, 8.05, 8.05, 8.05, 8.49, 8.49, 8.94, 8.94, 8.49, 8.05, 8.05, 8.94, 9.39, 9.39, 9.39, 9.39, 8.94, 8.05, 7.15, 5.81, 4.47, 3.13, 2.24, 1.79, 2.24, 3.13, 3.58, 3.58, 3.58, 3.58, 4.02, 4.02, 4.92, 5.81, 6.71, 7.15, 7.6, 7.6, 7.6, 7.6, 7.15, 7.6, 8.05, 8.05, 8.05, 7.6, 7.15, 7.15, 7.15, 7.15, 9.83, 9.39, 9.39, 9.39, 9.39, 9.39, 9.39, 9.39, 9.39, 9.39, 8.94, 8.94, 8.94, 8.94, 8.94, 8.94, 8.94, 8.94, 8.94, 8.94, 8.94, 8.94, 8.94, 8.94, 8.94, 8.94, 8.94, 8.94, 8.94, 8.94, 8.94, 8.94, 9.39, 9.39, 9.39, 9.39, 9.39, 9.39, 8.94, 8.49, 8.49, 8.05, 8.05, 8.05, 8.05, 8.05, 8.05, 8.05, 8.49, 8.49, 8.49, 8.49, 8.94, 8.94, 8.94, 8.94, 8.94, 8.49, 8.49, 8.94, 9.83, 9.83, 9.83, 9.39, 8.94, 8.49, 7.6, 6.26, 4.92, 3.58, 2.24, 1.79, 1.79, 2.68, 3.13, 3.58, 3.58, 3.58, 4.02, 4.47, 4.92, 5.81, 6.71, 7.15, 7.6, 7.6, 7.6, 7.6, 7.15, 7.6, 8.05, 8.05, 8.05, 8.05, 7.6, 7.15, 7.15, 7.15, 9.83, 9.83, 9.83, 9.83, 9.83, 9.83, 9.83, 9.83, 9.83, 9.39, 9.39, 9.39, 9.39, 8.94, 8.94, 8.94, 8.94, 8.94, 8.94, 8.94, 8.94, 8.94, 8.94, 8.94, 9.39, 9.39, 9.39, 9.39, 9.39, 9.39, 9.39, 9.39, 9.39, 9.83, 9.39, 9.39, 9.39, 9.39, 9.39, 8.94, 8.49, 8.05, 8.05, 8.05, 8.05, 8.05, 8.49, 8.49, 8.94, 8.94, 8.94, 8.94, 8.94, 8.94, 9.39, 9.39, 9.39, 8.94, 8.94, 9.39, 9.83, 9.83, 9.83, 9.83, 9.39, 8.49, 8.05, 6.71, 5.36, 3.58, 1.79, 1.34, 1.79, 2.68, 3.13, 3.58, 3.58, 4.02, 4.47, 4.47, 4.92, 5.81, 6.71, 7.15, 7.6, 7.6, 7.6, 7.6, 7.15, 7.6, 8.05, 8.49, 8.49, 8.05, 7.6, 7.6, 7.6, 7.15, 10.28, 10.28, 10.28, 10.28, 10.28, 10.28, 9.83, 9.83, 9.83, 9.83, 9.83, 9.83, 9.39, 9.39, 9.39, 9.39, 9.39, 9.39, 9.39, 9.39, 9.39, 9.39, 9.39, 9.39, 9.39, 9.39, 9.39, 9.39, 9.83, 9.83, 9.39, 9.83, 9.83, 9.83, 9.83, 9.83, 9.83, 9.83, 9.83, 8.94, 8.49, 8.05, 8.05, 8.05, 8.49, 8.49, 8.94, 8.94, 9.39, 9.83, 9.83, 9.83, 9.83, 9.83, 9.83, 9.83, 9.39, 8.94, 9.39, 9.83, 9.83, 9.83, 9.83, 9.83, 9.83, 8.94, 8.05, 6.71, 5.36, 3.58, 1.79, 1.34, 2.68, 3.13, 3.58, 4.02, 4.02, 4.47, 4.92, 4.92, 4.92, 5.81, 6.71, 7.15, 7.15, 7.6, 7.6, 7.6, 7.15, 7.15, 7.6, 8.49, 8.49, 8.05, 7.6, 7.6, 7.6, 7.6, 10.73, 10.73, 10.28, 10.28, 10.28, 10.28, 10.28, 10.28, 10.28, 10.28, 10.28, 9.83, 9.83, 9.83, 9.83, 9.83, 9.39, 9.39, 9.39, 9.39, 9.39, 9.39, 9.39, 9.39, 9.39, 9.83, 9.83, 9.83, 9.83, 9.83, 9.83, 9.83, 9.83, 9.83, 9.83, 9.83, 10.28, 10.28, 9.83, 9.39, 8.94, 8.49, 8.49, 8.49, 8.49, 8.94, 9.39, 9.39, 9.83, 10.28, 10.28, 10.73, 10.73, 10.73, 10.73, 10.28, 9.83, 8.94, 8.94, 9.83, 10.28, 10.28, 10.28, 10.28, 9.83, 9.39, 8.49, 7.15, 5.36, 3.58, 1.79, 1.34, 3.13, 4.47, 4.47, 4.47, 4.47, 4.92, 4.92, 5.36, 5.36, 5.81, 6.71, 7.15, 7.15, 7.15, 7.6, 7.15, 7.15, 6.71, 7.6, 8.05, 8.49, 8.49, 8.05, 7.6, 7.6, 7.6, 10.73, 10.73, 10.73, 10.73, 10.73, 10.73, 10.73, 10.73, 10.73, 10.73, 10.28, 10.28, 10.28, 10.28, 9.83, 9.83, 9.83, 9.83, 9.83, 9.83, 9.83, 9.83, 9.83, 9.83, 9.83, 9.83, 9.83, 9.83, 9.83, 9.83, 10.28, 10.28, 10.28, 10.28, 9.83, 10.28, 10.28, 10.28, 10.28, 9.39, 8.94, 8.94, 8.49, 8.94, 8.94, 8.94, 9.39, 9.83, 10.28, 10.73, 10.73, 10.73, 11.18, 11.18, 11.18, 11.18, 11.18, 10.28, 9.39, 9.83, 10.73, 10.73, 10.73, 10.28, 10.28, 10.28, 9.83, 8.49, 7.15, 5.36, 3.58, 2.68, 3.13, 4.47, 4.47, 4.47, 4.92, 5.36, 5.36, 5.36, 5.36, 5.81, 6.71, 7.15, 7.15, 7.15, 6.71, 6.71, 6.71, 6.71, 7.15, 8.05, 8.49, 8.49, 8.05, 8.05, 8.05, 8.05, 11.18, 11.18, 11.18, 11.18, 11.18, 11.18, 11.18, 11.18, 10.73, 10.73, 10.73, 10.73, 10.73, 10.28, 10.28, 10.28, 10.28, 10.28, 10.28, 9.83, 9.83, 9.83, 9.83, 10.28, 10.28, 10.28, 10.28, 10.28, 10.28, 10.28, 10.28, 10.28, 10.28, 10.28, 10.28, 10.28, 10.28, 10.73, 10.28, 9.83, 9.39, 8.94, 8.94, 8.94, 8.94, 9.39, 9.83, 10.28, 10.73, 10.73, 10.73, 10.73, 11.18, 11.18, 11.62, 11.62, 11.62, 11.18, 10.28, 9.83, 10.73, 11.18, 11.18, 10.73, 10.73, 10.73, 10.28, 9.83, 8.49, 7.15, 5.36, 4.47, 4.02, 4.47, 4.92, 4.92, 4.92, 5.36, 5.81, 5.36, 5.36, 5.36, 6.26, 7.15, 7.6, 7.15, 6.71, 6.71, 6.26, 6.26, 6.71, 7.6, 8.49, 8.49, 8.05, 8.05, 8.05, 8.05, 11.62, 11.62, 11.62, 11.62, 11.62, 11.18, 11.18, 11.18, 11.18, 11.18, 11.18, 11.18, 10.73, 10.73, 10.73, 10.73, 10.73, 10.28, 10.28, 10.28, 10.28, 10.28, 10.28, 10.28, 10.28, 10.28, 10.28, 10.28, 10.28, 10.73, 10.73, 10.73, 10.73, 10.28, 10.28, 10.28, 10.28, 10.73, 10.73, 10.28, 9.83, 9.39, 9.39, 9.39, 9.39, 9.83, 10.28, 10.73, 11.18, 11.18, 11.18, 11.18, 11.18, 11.18, 11.62, 11.62, 11.62, 11.62, 11.18, 10.73, 10.73, 11.18, 11.18, 11.18, 11.18, 11.18, 10.73, 10.73, 9.83, 8.05, 6.26, 4.47, 4.02, 4.47, 4.47, 4.92, 4.92, 5.36, 5.81, 5.81, 5.36, 5.36, 6.26, 6.71, 7.6, 7.6, 7.15, 6.71, 6.26, 6.26, 6.26, 8.49, 8.49, 8.49, 8.05, 8.49, 8.05, 8.05, 12.07, 12.07, 12.07, 11.62, 11.62, 11.62, 11.62, 11.62, 11.62, 11.62, 11.62, 11.18, 11.18, 11.18, 10.73, 10.73, 10.73, 10.73, 10.73, 10.73, 10.28, 10.28, 10.28, 10.73, 10.73, 10.73, 10.73, 10.73, 10.73, 10.73, 10.73, 10.73, 10.73, 10.73, 10.73, 10.28, 10.28, 10.73, 10.73, 10.73, 10.28, 9.83, 9.83, 9.83, 9.83, 10.28, 10.73, 10.73, 11.18, 11.62, 11.62, 11.62, 11.62, 11.62, 11.62, 11.62, 11.62, 11.62, 11.62, 11.18, 11.18, 11.18, 11.18, 11.18, 11.18, 11.18, 11.18, 11.18, 10.73, 9.39, 7.15, 4.92, 4.47, 4.92, 4.92, 5.36, 5.36, 5.81, 5.81, 5.81, 5.36, 5.36, 6.26, 7.15, 7.6, 7.6, 7.6, 6.71, 6.71, 6.26, 6.71, 8.05, 8.49, 8.49, 8.49, 8.49, 8.49, 8.49, 12.07, 12.07, 12.07, 12.07, 12.07, 12.07, 12.07, 12.07, 12.07, 11.62, 11.62, 11.62, 11.62, 11.18, 11.18, 11.18, 11.18, 11.18, 11.18, 11.18, 10.73, 10.73, 10.73, 10.73, 10.73, 10.73, 10.73, 10.73, 10.73, 10.73, 10.73, 11.18, 11.18, 10.73, 10.73, 10.73, 10.73, 10.73, 10.73, 10.73, 10.73, 10.28, 10.28, 10.28, 10.28, 10.73, 11.18, 11.18, 11.62, 11.62, 11.62, 11.62, 11.62, 11.62, 11.62, 11.62, 11.62, 11.62, 11.62, 11.62, 11.62, 11.18, 11.62, 11.18, 11.18, 11.18, 11.62, 11.62, 11.18, 10.28, 8.05, 5.36, 4.92, 5.36, 5.81, 5.81, 6.26, 6.26, 6.26, 5.81, 5.81, 5.81, 6.71, 7.6, 7.6, 7.6, 7.6, 7.15, 7.15, 6.71, 7.15, 8.05, 8.49, 8.49, 8.49, 8.49, 8.49, 8.49, 12.52, 12.52, 12.52, 12.52, 12.52, 12.52, 12.52, 12.07, 12.07, 12.07, 12.07, 12.07, 11.62, 11.62, 11.62, 11.18, 11.18, 11.18, 11.18, 11.18, 11.18, 11.18, 10.73, 11.18, 11.18, 11.18, 11.18, 11.18, 11.18, 11.18, 11.18, 11.18, 11.18, 11.18, 11.18, 10.73, 10.73, 10.73, 11.18, 11.18, 11.18, 11.18, 10.73, 10.73, 10.73, 11.18, 11.62, 11.62, 12.07, 12.07, 12.07, 12.07, 12.07, 12.07, 12.07, 12.07, 12.07, 12.07, 11.62, 11.62, 11.62, 11.62, 11.62, 11.62, 11.62, 11.62, 11.62, 11.62, 11.18, 10.73, 8.94, 6.26, 4.92, 5.36, 5.81, 6.26, 6.71, 7.15, 6.71, 6.26, 5.81, 6.26, 7.15, 7.6, 7.6, 7.6, 7.15, 7.15, 7.15, 7.15, 7.15, 7.6, 8.49, 8.94, 8.49, 8.49, 8.49, 8.49, 12.96, 12.96, 12.96, 12.96, 12.96, 12.96, 12.96, 12.52, 12.52, 12.52, 12.52, 12.07, 12.07, 12.07, 11.62, 11.62, 11.62, 11.62, 11.62, 11.62, 11.62, 11.18, 11.18, 11.18, 11.18, 11.62, 11.62, 11.62, 11.18, 11.18, 11.18, 11.18, 11.18, 11.18, 11.18, 11.18, 11.18, 11.18, 11.18, 11.62, 11.62, 11.62, 11.62, 11.62, 11.62, 12.07, 12.07, 12.07, 12.07, 12.52, 12.52, 12.52, 12.07, 12.07, 12.07, 12.07, 12.07, 12.07, 12.07, 12.07, 12.07, 12.07, 12.07, 11.62, 11.62, 11.62, 11.62, 11.62, 11.18, 10.73, 9.39, 7.15, 4.47, 4.92, 5.81, 6.26, 6.71, 7.15, 6.71, 6.71, 6.26, 6.26, 6.71, 7.15, 7.6, 7.6, 7.15, 7.15, 7.15, 7.6, 7.6, 7.6, 8.49, 8.94, 8.94, 8.49, 8.49, 8.49, 13.41, 13.41, 13.41, 13.41, 13.41, 13.41, 12.96, 12.96, 12.96, 12.96, 12.52, 12.52, 12.52, 12.52, 12.07, 12.07, 12.07, 11.62, 11.62, 11.62, 11.62, 11.62, 11.62, 11.62, 11.62, 11.62, 11.62, 11.62, 11.62, 11.62, 11.62, 11.62, 11.62, 11.62, 11.62, 11.62, 11.62, 11.62, 11.62, 11.62, 12.07, 12.07, 12.07, 12.07, 12.52, 12.52, 12.52, 12.52, 12.52, 12.52, 12.52, 12.52, 12.52, 12.52, 12.52, 12.07, 12.07, 12.07, 12.52, 12.52, 12.07, 12.07, 12.07, 12.07, 12.07, 12.07, 11.62, 11.62, 11.18, 10.73, 9.83, 7.15, 4.02, 4.47, 5.81, 6.26, 6.71, 7.15, 7.15, 7.15, 6.71, 6.26, 6.26, 7.15, 7.6, 7.6, 7.6, 7.15, 7.15, 7.6, 7.6, 8.05, 8.49, 8.94, 8.94, 8.49, 8.49, 8.49, 13.86, 13.86, 13.86, 13.86, 13.86, 13.41, 13.41, 13.41, 13.41, 12.96, 12.96, 12.96, 12.96, 12.52, 12.52, 12.52, 12.07, 12.07, 12.07, 12.07, 12.07, 12.07, 12.07, 11.62, 11.62, 11.62, 11.62, 12.07, 12.07, 12.07, 12.07, 12.07, 12.07, 12.07, 12.07, 12.07, 11.62, 11.62, 12.07, 12.07, 12.52, 12.52, 12.52, 12.96, 12.96, 12.96, 12.96, 12.96, 12.96, 12.96, 12.96, 12.52, 12.52, 12.52, 12.52, 12.52, 12.52, 12.07, 12.52, 12.52, 12.52, 12.52, 12.52, 12.07, 12.07, 12.07, 12.07, 11.62, 11.62, 11.18, 10.28, 7.6, 3.58, 3.58, 6.26, 6.26, 6.26, 6.71, 7.15, 7.15, 7.15, 7.15, 6.71, 6.71, 7.15, 7.6, 7.6, 7.6, 7.15, 7.15, 7.6, 8.05, 8.49, 8.94, 8.94, 8.94, 8.49, 8.49, 14.3, 14.3, 13.86, 13.86, 13.86, 13.86, 13.86, 13.86, 13.86, 13.41, 13.41, 13.41, 13.41, 12.96, 12.96, 12.96, 12.52, 12.52, 12.52, 12.52, 12.07, 12.07, 12.07, 12.07, 12.07, 12.07, 12.07, 12.07, 12.07, 12.07, 12.07, 12.07, 12.07, 12.07, 12.07, 12.07, 12.07, 12.07, 12.07, 12.52, 12.52, 12.96, 12.96, 12.96, 13.41, 12.96, 12.96, 12.96, 12.96, 12.96, 12.96, 12.96, 12.96, 12.96, 12.96, 12.96, 12.52, 12.52, 12.52, 12.52, 12.96, 12.52, 12.52, 12.52, 12.07, 12.07, 12.07, 12.07, 11.62, 11.62, 11.18, 8.94, 2.24, 5.36, 6.26, 5.81, 6.26, 6.26, 6.71, 7.15, 7.6, 7.15, 7.15, 6.71, 7.15, 7.15, 7.6, 7.6, 7.15, 7.15, 7.15, 8.05, 8.49, 8.94, 8.94, 8.94, 8.49, 8.49, 14.3, 14.3, 14.3, 14.3, 14.3, 14.3, 14.3, 14.3, 13.86, 13.86, 13.86, 13.86, 13.41, 13.41, 13.41, 13.41, 12.96, 12.96, 12.96, 12.52, 12.52, 12.52, 12.52, 12.52, 12.52, 12.07, 12.07, 12.52, 12.52, 12.52, 12.52, 12.52, 12.52, 12.52, 12.52, 12.52, 12.52, 12.52, 12.52, 12.96, 12.96, 12.96, 13.41, 13.41, 13.41, 13.41, 13.41, 13.41, 13.41, 13.41, 13.41, 13.41, 12.96, 12.96, 12.96, 12.96, 12.96, 12.96, 12.52, 12.52, 12.96, 12.96, 12.52, 12.52, 12.52, 12.07, 12.07, 12.07, 12.07, 11.62, 11.62, 7.6, 4.02, 4.02, 5.36, 5.81, 6.26, 6.71, 6.71, 7.15, 7.15, 7.6, 7.15, 7.15, 7.15, 7.15, 7.6, 7.6, 7.6, 7.15, 7.15, 7.6, 8.05, 8.94, 9.39, 8.94, 8.94, 8.94, 14.75, 14.75, 14.75, 14.75, 14.75, 14.75, 14.75, 14.75, 14.3, 14.3, 14.3, 14.3, 13.86, 13.86, 13.86, 13.41, 13.41, 13.41, 13.41, 12.96, 12.96, 12.96, 12.96, 12.52, 12.52, 12.52, 12.52, 12.52, 12.52, 12.52, 12.52, 12.52, 12.52, 12.52, 12.52, 12.52, 12.96, 12.96, 12.96, 12.96, 13.41, 13.41, 13.41, 13.41, 13.41, 13.41, 13.41, 13.41, 13.41, 13.41, 13.41, 13.41, 13.41, 13.41, 13.41, 13.41, 13.41, 13.41, 12.96, 12.52, 12.52, 12.96, 12.96, 12.52, 12.52, 12.52, 12.07, 12.07, 12.07, 12.07, 11.18, 9.39, 6.26, 3.58, 3.58, 4.47, 6.26, 7.15, 6.71, 6.71, 7.15, 7.6, 7.15, 7.15, 7.15, 7.15, 7.6, 7.6, 8.05, 7.6, 7.15, 7.15, 8.05, 8.49, 8.94, 8.94, 8.94, 8.94, 15.65, 15.65, 15.2, 15.2, 15.2, 15.2, 15.2, 15.2, 15.2, 14.75, 14.75, 14.75, 14.3, 14.3, 14.3, 14.3, 13.86, 13.86, 13.86, 13.41, 13.41, 13.41, 12.96, 12.96, 12.96, 12.96, 12.96, 12.96, 12.96, 12.96, 12.96, 12.96, 12.96, 12.96, 12.96, 12.96, 12.96, 12.96, 13.41, 13.41, 13.41, 13.41, 13.86, 13.86, 13.86, 13.86, 13.86, 13.86, 13.86, 13.86, 13.86, 13.86, 13.86, 13.41, 13.41, 13.41, 13.86, 13.86, 13.41, 13.41, 12.96, 12.96, 12.96, 12.96, 12.52, 12.52, 12.52, 12.07, 12.07, 12.07, 12.07, 10.73, 8.49, 5.81, 4.02, 4.02, 5.36, 7.6, 7.6, 7.15, 7.6, 7.6, 7.6, 7.6, 7.6, 7.6, 7.6, 7.6, 8.05, 8.05, 8.05, 7.15, 7.6, 8.49, 8.94, 8.94, 8.94, 8.94, 16.09, 16.09, 16.09, 15.65, 15.65, 15.65, 15.65, 15.65, 15.65, 15.2, 15.2, 15.2, 14.75, 14.75, 14.75, 14.75, 14.3, 14.3, 14.3, 13.86, 13.86, 13.86, 13.41, 13.41, 13.41, 13.41, 12.96, 12.96, 12.96, 13.41, 12.96, 13.41, 13.41, 13.41, 13.41, 13.41, 13.41, 13.41, 13.41, 13.86, 13.86, 13.86, 14.3, 13.86, 13.86, 13.86, 13.86, 13.86, 13.86, 13.86, 13.86, 13.86, 13.86, 13.86, 13.86, 13.86, 13.86, 13.86, 13.86, 13.86, 13.41, 12.96, 12.96, 12.96, 12.96, 12.52, 12.52, 12.52, 12.52, 12.52, 12.07, 11.18, 9.83, 7.6, 6.26, 5.36, 5.36, 7.6, 8.49, 8.05, 8.05, 8.05, 8.05, 7.6, 7.6, 7.6, 7.6, 7.6, 8.05, 8.49, 8.49, 8.05, 7.6, 8.05, 8.94, 8.94, 8.94, 8.94, 16.54, 16.54, 16.54, 16.54, 16.54, 16.09, 16.09, 16.09, 16.09, 16.09, 15.65, 15.65, 15.65, 15.2, 15.2, 15.2, 14.75, 14.75, 14.75, 14.3, 14.3, 14.3, 13.86, 13.86, 13.86, 13.41, 13.41, 13.86, 13.86, 13.86, 13.86, 13.86, 13.86, 13.41, 13.41, 13.41, 13.41, 13.86, 13.86, 13.86, 13.86, 14.3, 14.3, 14.3, 14.3, 14.3, 14.3, 14.3, 14.3, 14.3, 14.3, 14.3, 14.3, 14.3, 14.3, 14.3, 14.3, 14.3, 14.3, 13.86, 13.86, 13.41, 12.96, 12.96, 12.96, 12.52, 12.52, 12.52, 12.52, 12.52, 12.07, 11.62, 10.28, 8.94, 7.6, 7.15, 6.71, 7.15, 8.05, 8.94, 8.94, 8.49, 8.05, 8.05, 8.05, 8.05, 8.05, 8.05, 8.05, 8.49, 8.94, 8.94, 8.05, 8.05, 8.94, 8.94, 8.94, 8.94, 17.43, 17.43, 16.99, 16.99, 16.99, 16.99, 16.99, 16.99, 16.99, 16.54, 16.54, 16.09, 16.09, 16.09, 15.65, 15.65, 15.65, 15.2, 15.2, 15.2, 14.75, 14.75, 14.3, 14.3, 13.86, 14.3, 14.3, 13.86, 13.86, 13.86, 13.86, 13.86, 13.86, 13.86, 13.86, 13.86, 13.86, 13.86, 13.86, 14.3, 14.3, 14.3, 14.3, 14.75, 14.75, 14.75, 14.75, 14.75, 14.75, 14.3, 14.3, 14.3, 14.3, 14.3, 14.3, 14.3, 14.3, 14.3, 14.3, 14.3, 13.86, 13.41, 13.41, 13.41, 12.96, 12.52, 12.52, 12.96, 12.96, 12.96, 12.52, 11.62, 10.28, 8.94, 8.05, 8.05, 8.05, 7.15, 7.15, 8.49, 9.39, 8.49, 8.05, 8.05, 7.6, 8.05, 8.05, 8.05, 8.05, 8.49, 8.94, 8.94, 8.94, 8.49, 8.94, 8.94, 8.94, 8.94, 17.88, 17.88, 17.88, 17.88, 17.43, 17.43, 17.43, 17.43, 17.43, 17.43, 17.43, 16.99, 16.54, 16.54, 16.54, 16.09, 16.09, 16.09, 15.65, 15.65, 15.2, 15.2, 15.2, 15.2, 14.75, 14.75, 14.3, 14.3, 14.3, 14.3, 14.3, 14.3, 14.3, 14.3, 14.3, 13.86, 13.86, 13.86, 14.3, 14.3, 14.3, 14.75, 14.75, 14.75, 14.75, 14.75, 14.75, 14.75, 14.75, 14.75, 14.75, 14.75, 14.75, 14.75, 14.75, 14.75, 14.75, 14.75, 14.3, 14.3, 14.3, 13.86, 13.41, 13.41, 12.96, 12.96, 12.96, 12.96, 12.96, 12.96, 12.96, 12.52, 10.73, 8.49, 7.6, 8.49, 8.94, 8.49, 7.15, 7.6, 8.94, 8.94, 8.05, 7.6, 7.6, 7.6, 8.05, 8.05, 8.49, 8.94, 9.39, 9.39, 9.39, 8.94, 9.39, 9.39, 8.94, 8.94, 18.78, 18.78, 18.33, 18.33, 18.33, 18.33, 18.33, 18.33, 18.33, 17.88, 17.88, 17.88, 17.43, 17.43, 16.99, 16.99, 16.54, 16.54, 16.54, 16.09, 15.65, 16.09, 15.65, 15.65, 15.2, 15.2, 14.75, 14.75, 14.75, 14.75, 14.75, 14.3, 14.3, 14.3, 14.3, 14.3, 14.3, 14.3, 14.3, 14.3, 14.75, 14.75, 14.75, 15.2, 15.2, 15.2, 15.2, 15.2, 15.2, 15.2, 15.2, 15.2, 15.2, 14.75, 14.75, 14.75, 14.75, 14.75, 14.75, 14.3, 14.3, 13.86, 13.86, 13.41, 13.41, 13.41, 13.41, 13.41, 12.96, 12.96, 13.41, 12.96, 11.18, 8.49, 7.15, 8.49, 9.39, 8.94, 8.05, 7.15, 8.05, 8.49, 8.05, 7.6, 7.15, 7.15, 7.6, 8.05, 8.49, 8.94, 9.39, 9.83, 9.83, 9.83, 9.39, 9.39, 8.94, 8.94, 19.67, 19.67, 19.22, 19.22, 19.22, 19.22, 18.78, 18.78, 18.78, 18.78, 18.78, 18.33, 18.33, 17.88, 17.88, 17.43, 17.43, 16.99, 16.99, 16.99, 16.99, 16.54, 16.09, 16.09, 15.65, 15.65, 15.2, 15.2, 14.75, 14.75, 14.75, 14.75, 14.75, 14.75, 14.75, 14.3, 14.3, 14.3, 14.75, 14.75, 14.75, 14.75, 15.2, 15.2, 15.2, 15.2, 15.2, 15.2, 15.2, 15.2, 15.2, 15.2, 15.2, 15.2, 15.2, 15.2, 15.2, 14.75, 14.75, 14.75, 14.3, 14.3, 13.86, 13.86, 13.86, 13.41, 13.86, 13.86, 13.41, 13.41, 13.41, 13.41, 12.07, 9.39, 7.15, 8.49, 9.39, 8.94, 8.49, 8.05, 8.05, 8.05, 8.05, 7.6, 7.15, 7.15, 7.6, 8.05, 8.49, 8.94, 9.39, 9.83, 10.28, 10.28, 9.83, 9.83, 9.39, 9.39, 20.12, 20.12, 20.12, 20.12, 20.12, 19.67, 19.67, 19.67, 19.67, 19.67, 19.22, 19.22, 19.22, 18.78, 18.33, 18.33, 17.88, 18.33, 17.88, 17.88, 17.43, 16.99, 16.54, 16.54, 16.09, 16.09, 15.65, 15.65, 15.2, 15.2, 15.2, 15.2, 15.2, 14.75, 14.75, 14.75, 14.75, 14.75, 14.75, 14.75, 15.2, 15.2, 15.2, 15.2, 15.2, 15.65, 15.65, 15.65, 15.65, 15.65, 15.65, 15.65, 15.65, 15.65, 15.65, 15.2, 15.2, 15.2, 14.75, 14.75, 14.75, 14.3, 13.86, 13.86, 13.86, 13.86, 13.86, 13.86, 13.86, 13.86, 13.41, 13.41, 12.52, 10.73, 8.05, 8.05, 8.94, 8.94, 8.49, 8.49, 8.05, 8.05, 7.6, 7.6, 7.15, 7.15, 7.15, 8.05, 8.49, 8.94, 9.39, 9.83, 10.28, 10.28, 10.28, 9.83, 9.83, 9.83, 21.01, 21.01, 21.01, 21.01, 20.56, 20.56, 20.56, 20.56, 20.12, 20.12, 20.12, 19.67, 19.67, 19.67, 19.22, 18.78, 19.22, 18.78, 18.33, 18.33, 17.88, 17.43, 16.99, 16.99, 16.54, 16.09, 16.09, 15.65, 15.65, 15.65, 15.2, 15.2, 15.2, 15.2, 15.2, 15.2, 14.75, 14.75, 15.2, 15.2, 15.2, 15.2, 15.65, 15.65, 15.65, 15.65, 15.65, 15.65, 15.65, 15.65, 15.65, 15.65, 15.65, 15.65, 15.65, 15.65, 15.65, 15.2, 15.2, 14.75, 14.75, 14.3, 14.3, 14.3, 14.3, 14.3, 14.3, 14.3, 14.3, 13.86, 13.86, 13.86, 12.96, 11.18, 8.94, 8.05, 8.49, 8.94, 8.49, 8.49, 8.49, 8.05, 7.6, 7.15, 7.15, 7.15, 7.15, 7.6, 8.49, 8.94, 9.39, 9.83, 10.28, 10.73, 10.73, 10.28, 9.83, 9.83, 21.9, 21.9, 21.9, 21.46, 21.46, 21.46, 21.46, 21.01, 21.01, 21.01, 20.56, 20.56, 20.56, 20.12, 20.56, 20.12, 19.67, 19.22, 19.22, 18.78, 18.33, 17.88, 17.43, 17.43, 16.99, 16.54, 16.54, 16.09, 16.09, 15.65, 15.65, 15.65, 15.65, 15.2, 15.2, 15.2, 15.2, 15.2, 15.2, 15.2, 15.2, 15.65, 15.65, 15.65, 15.65, 15.65, 15.65, 15.65, 16.09, 16.09, 15.65, 15.65, 15.65, 15.65, 15.65, 15.65, 15.65, 15.65, 15.65, 15.2, 14.75, 14.75, 14.3, 14.3, 14.3, 14.3, 14.3, 14.3, 14.3, 14.3, 14.3, 14.3, 13.41, 11.62, 9.83, 8.94, 8.49, 8.49, 8.49, 8.94, 8.49, 8.05, 7.6, 7.15, 7.15, 7.15, 7.15, 7.6, 8.49, 8.94, 9.39, 9.83, 10.28, 10.73, 10.73, 10.73, 10.28, 10.28, 22.8, 22.8, 22.8, 22.35, 22.35, 22.35, 21.9, 21.9, 21.46, 21.46, 21.46, 21.01, 21.01, 21.46, 21.01, 20.56, 20.12, 19.67, 19.22, 19.22, 18.78, 18.33, 17.88, 17.88, 17.43, 16.99, 16.99, 16.54, 16.54, 16.09, 16.09, 16.09, 15.65, 15.65, 15.65, 15.65, 15.2, 15.2, 15.65, 15.65, 15.65, 15.65, 15.65, 15.65, 16.09, 16.09, 16.09, 16.09, 16.09, 16.09, 16.09, 16.09, 16.09, 16.09, 16.09, 16.09, 16.09, 15.65, 15.65, 15.2, 15.2, 14.75, 14.75, 14.75, 14.75, 14.75, 14.75, 14.75, 14.75, 14.75, 14.75, 14.75, 13.86, 12.07, 10.73, 9.83, 8.94, 8.49, 8.49, 8.94, 8.94, 8.05, 7.6, 7.15, 7.15, 6.71, 7.15, 7.6, 8.49, 8.94, 9.39, 9.83, 10.28, 10.73, 11.18, 11.18, 10.73, 10.73, 23.69, 23.69, 23.25, 23.25, 23.25, 22.8, 22.8, 22.35, 22.35, 22.35, 21.9, 21.9, 21.9, 21.9, 21.46, 21.01, 20.56, 20.12, 19.67, 19.67, 19.22, 18.78, 18.33, 18.33, 17.88, 17.43, 17.43, 16.99, 16.99, 16.54, 16.54, 16.09, 16.09, 16.09, 15.65, 15.65, 15.65, 15.65, 15.65, 15.65, 15.65, 15.65, 15.65, 16.09, 16.09, 16.09, 16.09, 16.09, 16.09, 16.09, 16.09, 16.09, 16.09, 16.09, 16.09, 16.09, 16.09, 16.09, 15.65, 15.65, 15.65, 15.2, 15.2, 14.75, 14.75, 14.75, 14.75, 14.75, 14.75, 14.75, 14.75, 15.2, 14.3, 12.96, 11.18, 10.28, 9.39, 8.49, 8.49, 8.94, 8.94, 8.05, 7.6, 7.15, 6.71, 6.71, 6.71, 7.6, 8.05, 8.94, 9.39, 9.83, 10.28, 10.73, 11.18, 11.62, 11.62, 11.18, 24.14, 24.14, 24.14, 23.69, 23.69, 23.69, 23.25, 23.25, 23.25, 22.8, 22.8, 22.8, 22.8, 22.35, 21.9, 21.9, 21.46, 20.56, 20.12, 19.67, 19.67, 19.22, 18.78, 18.33, 18.33, 17.88, 17.43, 17.43, 16.99, 16.99, 16.99, 16.54, 16.54, 16.09, 16.09, 16.09, 16.09, 16.09, 16.09, 16.09, 16.09, 16.09, 16.09, 16.09, 16.09, 16.54, 16.54, 16.54, 16.09, 16.09, 16.54, 16.54, 16.54, 16.54, 16.54, 16.54, 16.09, 16.09, 16.09, 15.65, 15.65, 15.65, 15.65, 15.2, 15.2, 15.2, 15.2, 15.2, 14.75, 14.75, 15.2, 15.2, 15.2, 13.86, 11.62, 10.28, 9.83, 8.94, 8.94, 8.94, 8.94, 8.05, 7.15, 7.15, 6.71, 6.26, 6.71, 7.6, 8.05, 8.94, 9.39, 9.83, 10.28, 11.18, 11.62, 12.07, 12.07, 11.62, 25.03, 25.03, 24.59, 24.59, 24.59, 24.14, 24.14, 24.14, 23.69, 23.69, 23.69, 23.25, 23.25, 22.8, 22.35, 21.9, 21.9, 21.46, 20.56, 20.12, 20.12, 19.67, 19.22, 18.78, 18.78, 18.33, 17.88, 17.88, 17.43, 17.43, 16.99, 16.99, 16.54, 16.54, 16.54, 16.54, 16.09, 16.09, 16.09, 16.09, 16.09, 16.09, 16.09, 16.09, 16.09, 16.54, 16.54, 16.54, 16.54, 16.54, 16.54, 16.54, 16.54, 16.54, 16.54, 16.54, 16.54, 16.54, 16.09, 16.09, 16.09, 15.65, 15.65, 15.65, 15.2, 15.2, 15.2, 15.2, 15.2, 15.2, 15.2, 15.2, 15.2, 14.75, 12.96, 10.73, 9.39, 9.39, 9.39, 9.39, 8.94, 8.05, 7.15, 7.15, 6.71, 6.26, 6.26, 7.15, 8.05, 8.49, 8.94, 9.83, 10.73, 11.18, 12.07, 12.52, 12.52, 12.07, 25.48, 25.48, 25.48, 25.03, 25.03, 24.59, 24.59, 24.59, 24.14, 24.59, 24.14, 23.69, 23.69, 23.25, 22.8, 22.35, 22.35, 21.9, 21.01, 20.56, 20.12, 20.12, 19.67, 19.22, 18.78, 18.78, 18.33, 18.33, 17.88, 17.88, 17.43, 17.43, 16.99, 16.99, 16.54, 16.54, 16.54, 16.54, 16.54, 16.54, 16.54, 16.54, 16.54, 16.54, 16.54, 16.54, 16.54, 16.54, 16.54, 16.54, 16.54, 16.54, 16.99, 16.99, 16.99, 16.54, 16.54, 16.54, 16.54, 16.09, 16.09, 16.09, 16.09, 15.65, 15.65, 15.65, 15.65, 15.65, 15.2, 15.2, 15.2, 15.2, 15.2, 15.2, 14.75, 12.52, 9.83, 8.94, 9.39, 9.39, 8.94, 8.05, 7.15, 7.15, 6.71, 6.26, 6.26, 6.71, 7.6, 8.49, 9.39, 9.83, 10.73, 11.62, 12.52, 12.52, 12.52, 12.52, 25.93, 25.93, 25.93, 25.48, 25.48, 25.03, 25.03, 25.03, 25.03, 24.59, 24.59, 24.14, 23.69, 23.69, 23.25, 22.8, 22.35, 21.9, 21.9, 21.01, 20.56, 20.12, 20.12, 19.67, 19.22, 19.22, 18.78, 18.78, 18.33, 17.88, 17.88, 17.43, 17.43, 16.99, 16.99, 16.99, 16.99, 16.99, 16.54, 16.54, 16.54, 16.54, 16.54, 16.54, 16.54, 16.54, 16.54, 16.99, 16.99, 16.99, 16.99, 16.99, 16.99, 16.99, 16.99, 16.99, 16.99, 16.54, 16.54, 16.54, 16.54, 16.09, 16.09, 16.09, 16.09, 16.09, 15.65, 15.65, 15.65, 15.2, 15.2, 15.2, 15.2, 15.2, 15.2, 14.3, 11.62, 9.39, 8.94, 9.39, 8.94, 8.05, 7.15, 6.71, 6.26, 5.81, 5.81, 6.71, 7.6, 8.94, 9.39, 10.28, 11.18, 12.07, 12.96, 12.52, 12.52, 12.52, 26.37, 26.37, 26.37, 25.93, 25.93, 25.48, 25.48, 25.48, 25.03, 25.03, 24.59, 24.59, 24.14, 23.69, 23.69, 23.25, 22.8, 22.35, 21.9, 21.46, 21.01, 20.56, 20.12, 20.12, 19.67, 19.67, 19.22, 18.78, 18.78, 18.33, 18.33, 17.88, 17.88, 17.43, 17.43, 17.43, 16.99, 16.99, 16.99, 16.99, 16.99, 16.99, 16.99, 16.99, 16.99, 16.99, 16.99, 16.99, 16.99, 16.99, 16.99, 16.99, 16.99, 16.99, 16.99, 16.99, 16.99, 16.99, 16.99, 16.54, 16.54, 16.54, 16.54, 16.09, 16.09, 16.09, 16.09, 15.65, 15.65, 15.65, 15.2, 15.2, 15.2, 15.2, 14.75, 14.75, 13.41, 11.18, 9.39, 8.94, 8.49, 7.6, 7.15, 6.71, 5.81, 5.36, 5.81, 6.71, 8.05, 8.94, 9.83, 10.73, 11.62, 12.52, 12.96, 12.52, 12.52, 12.52, 26.82, 26.82, 26.37, 26.37, 25.93, 25.93, 25.93, 25.48, 25.48, 25.03, 25.03, 24.59, 24.59, 24.14, 23.69, 23.25, 23.25, 22.8, 22.35, 21.46, 21.01, 21.01, 20.56, 20.12, 20.12, 19.67, 19.67, 19.22, 19.22, 18.78, 18.33, 18.33, 17.88, 17.88, 17.43, 17.43, 17.43, 17.43, 17.43, 16.99, 16.99, 16.99, 16.99, 16.99, 16.99, 16.99, 16.99, 16.99, 16.99, 16.99, 17.43, 17.43, 17.43, 17.43, 17.43, 17.43, 16.99, 16.99, 16.99, 16.99, 16.54, 16.54, 16.54, 16.54, 16.54, 16.09, 16.09, 16.09, 15.65, 15.65, 15.65, 15.2, 15.2, 15.2, 14.75, 14.75, 13.86, 12.52, 10.73, 9.39, 8.05, 7.15, 6.71, 6.71, 5.81, 5.36, 5.81, 7.15, 8.49, 9.39, 9.83, 11.62, 12.07, 12.52, 12.96, 12.52, 12.52, 12.52, 26.82, 26.82, 26.82, 26.37, 26.37, 26.37, 25.93, 25.93, 25.48, 25.48, 25.03, 25.03, 24.59, 24.14, 24.14, 23.69, 23.25, 22.8, 22.35, 22.35, 21.46, 21.01, 21.01, 20.56, 20.56, 20.12, 19.67, 19.67, 19.22, 19.22, 18.78, 18.33, 18.33, 17.88, 17.88, 17.88, 17.88, 17.43, 17.43, 17.43, 17.43, 17.43, 16.99, 16.99, 16.99, 16.99, 16.99, 17.43, 17.43, 17.43, 17.43, 17.43, 17.43, 17.43, 17.43, 17.43, 17.43, 17.43, 16.99, 16.99, 16.99, 16.54, 16.54, 16.54, 16.54, 16.54, 16.09, 16.09, 16.09, 15.65, 15.65, 15.65, 15.2, 15.2, 14.75, 14.75, 14.3, 13.41, 12.07, 10.28, 8.49, 6.71, 6.26, 6.71, 6.26, 5.81, 6.26, 7.6, 8.49, 9.39, 10.73, 11.62, 12.07, 12.52, 12.96, 12.52, 12.52, 12.52, 27.27, 27.27, 26.82, 26.82, 26.37, 26.37, 25.93, 25.93, 25.48, 25.48, 25.48, 25.03, 24.59, 24.59, 24.14, 23.69, 23.69, 23.25, 22.8, 22.35, 21.9, 21.46, 21.01, 21.01, 20.56, 20.56, 20.12, 20.12, 19.67, 19.22, 19.22, 18.78, 18.78, 18.33, 18.33, 17.88, 17.88, 17.88, 17.88, 17.43, 17.43, 17.43, 17.43, 17.43, 17.43, 17.43, 17.43, 17.43, 17.43, 17.43, 17.88, 17.88, 17.88, 17.88, 17.43, 17.43, 17.43, 17.43, 17.43, 16.99, 16.99, 16.99, 16.99, 16.54, 16.54, 16.54, 16.54, 16.09, 16.09, 15.65, 15.65, 15.65, 15.65, 15.2, 15.2, 14.75, 14.3, 13.86, 12.52, 11.62, 9.83, 7.6, 5.81, 6.26, 6.71, 6.26, 6.26, 7.15, 8.49, 10.28, 10.73, 11.62, 12.07, 12.52, 12.96, 12.96, 12.96, 12.96, 27.27, 27.27, 26.82, 26.82, 26.82, 26.37, 26.37, 25.93, 25.93, 25.48, 25.48, 25.03, 25.03, 24.59, 24.14, 24.14, 23.69, 23.25, 22.8, 22.8, 22.35, 21.9, 21.46, 21.01, 21.01, 20.56, 20.56, 20.12, 20.12, 19.67, 19.22, 19.22, 18.78, 18.78, 18.33, 18.33, 18.33, 17.88, 17.88, 17.88, 17.88, 17.43, 17.43, 17.43, 17.43, 17.43, 17.43, 17.43, 17.88, 17.88, 17.88, 17.88, 17.88, 17.88, 17.88, 17.88, 17.43, 17.43, 17.43, 17.43, 16.99, 16.99, 16.99, 16.99, 16.99, 16.54, 16.54, 16.54, 16.09, 16.09, 15.65, 15.65, 15.65, 15.2, 15.2, 14.75, 14.75, 14.3, 13.41, 12.52, 11.18, 8.94, 6.26, 5.36, 5.81, 6.26, 6.26, 6.71, 9.39, 10.28, 10.73, 11.62, 12.07, 12.52, 12.96, 12.96, 12.96, 12.96, 27.27, 27.27, 27.27, 26.82, 26.82, 26.37, 26.37, 25.93, 25.93, 25.48, 25.48, 25.03, 25.03, 24.59, 24.59, 24.14, 23.69, 23.69, 23.25, 22.8, 22.35, 21.9, 21.9, 21.46, 21.46, 21.01, 20.56, 20.56, 20.12, 19.67, 19.67, 19.22, 19.22, 18.78, 18.78, 18.78, 18.33, 18.33, 18.33, 17.88, 17.88, 17.88, 17.43, 17.43, 17.43, 17.88, 17.88, 17.88, 17.88, 17.88, 17.88, 18.33, 17.88, 17.88, 17.88, 17.88, 17.88, 17.88, 17.43, 17.43, 17.43, 16.99, 16.99, 16.99, 16.99, 16.99, 16.54, 16.54, 16.09, 16.09, 16.09, 15.65, 15.65, 15.65, 15.2, 15.2, 14.75, 14.3, 13.86, 12.96, 12.07, 10.28, 7.15, 4.47, 4.47, 5.81, 6.71, 8.05, 8.94, 9.83, 10.73, 11.62, 12.07, 12.52, 12.96, 12.96, 12.96, 12.96, 27.27, 27.27, 27.27, 26.82, 26.82, 26.37, 26.37, 25.93, 25.93, 25.93, 25.48, 25.48, 25.03, 24.59, 24.59, 24.14, 24.14, 23.69, 23.25, 23.25, 22.8, 22.35, 21.9, 21.9, 21.46, 21.46, 21.01, 20.56, 20.56, 20.12, 19.67, 19.67, 19.22, 19.22, 18.78, 18.78, 18.78, 18.33, 18.33, 18.33, 17.88, 17.88, 17.88, 17.88, 17.88, 17.88, 17.88, 18.33, 18.33, 18.33, 18.33, 18.33, 18.33, 18.33, 17.88, 17.88, 17.88, 17.88, 17.88, 17.43, 17.43, 17.43, 17.43, 16.99, 16.99, 16.99, 16.54, 16.54, 16.09, 16.09, 16.09, 15.65, 16.09, 15.65, 15.65, 15.2, 15.2, 14.75, 14.3, 13.41, 12.96, 11.62, 8.94, 5.36, 4.02, 6.71, 7.6, 8.49, 9.39, 9.39, 10.28, 11.62, 12.07, 12.52, 12.96, 12.96, 12.96, 12.96, 27.27, 27.27, 27.27, 26.82, 26.82, 26.37, 26.37, 26.37, 25.93, 25.93, 25.48, 25.48, 25.03, 25.03, 24.59, 24.14, 24.14, 23.69, 23.69, 23.25, 22.8, 22.8, 22.35, 21.9, 21.9, 21.46, 21.01, 21.01, 20.56, 20.56, 20.12, 19.67, 19.67, 19.22, 19.22, 19.22, 18.78, 18.78, 18.33, 18.33, 18.33, 17.88, 17.88, 17.88, 17.88, 18.33, 18.33, 18.33, 18.33, 18.33, 18.33, 18.33, 18.33, 18.33, 18.33, 17.88, 17.88, 17.88, 17.88, 17.88, 17.43, 17.43, 17.43, 17.43, 16.99, 16.99, 16.99, 16.54, 16.09, 16.09, 16.09, 15.65, 15.65, 16.09, 15.65, 15.65, 15.2, 14.75, 14.75, 14.3, 13.41, 12.52, 10.73, 7.15, 6.26, 7.6, 8.05, 9.39, 9.83, 9.83, 10.28, 11.18, 12.07, 12.96, 12.96, 12.96, 12.96, 12.96, 27.27, 27.27, 26.82, 26.82, 26.82, 26.37, 26.37, 26.37, 25.93, 25.93, 25.48, 25.48, 25.03, 25.03, 24.59, 24.59, 24.14, 23.69, 23.69, 23.25, 23.25, 22.8, 22.35, 22.35, 21.9, 21.46, 21.46, 21.01, 21.01, 20.56, 20.12, 20.12, 19.67, 19.67, 19.22, 19.22, 18.78, 18.78, 18.78, 18.33, 18.33, 18.33, 18.33, 18.33, 18.33, 18.33, 18.33, 18.78, 18.78, 18.78, 18.78, 18.78, 18.33, 18.33, 18.33, 18.33, 18.33, 17.88, 17.88, 17.88, 17.88, 17.43, 17.43, 17.43, 16.99, 16.99, 16.99, 16.99, 16.54, 16.09, 16.09, 16.09, 15.65, 16.09, 16.09, 15.65, 15.65, 15.2, 14.75, 14.3, 14.3, 13.41, 11.62, 5.36, 6.26, 7.6, 8.49, 9.39, 10.28, 10.28, 10.28, 11.18, 12.07, 12.96, 13.41, 12.96, 12.96, 12.96, 27.27, 27.27, 26.82, 26.82, 26.37, 26.37, 26.37, 26.37, 25.93, 25.93, 25.48, 25.48, 25.03, 25.03, 24.59, 24.59, 24.14, 24.14, 23.69, 23.69, 23.25, 23.25, 22.8, 22.35, 21.9, 21.9, 21.46, 21.46, 21.01, 20.56, 20.56, 20.12, 20.12, 19.67, 19.67, 19.22, 19.22, 18.78, 18.78, 18.78, 18.33, 18.33, 18.33, 18.78, 18.78, 18.78, 18.78, 18.78, 18.78, 18.78, 18.78, 18.78, 18.33, 18.33, 18.33, 18.33, 18.33, 18.33, 18.33, 17.88, 17.88, 17.88, 17.43, 17.43, 17.43, 16.99, 16.99, 16.99, 16.99, 16.54, 16.54, 16.09, 16.09, 16.09, 16.09, 16.09, 15.65, 15.65, 15.2, 14.75, 14.75, 14.3, 9.39, 5.36, 5.36, 7.6, 8.49, 9.83, 10.28, 10.73, 10.28, 10.73, 12.07, 12.96, 13.41, 12.96, 12.96, 12.96, 26.82, 26.82, 26.82, 26.82, 26.37, 26.37, 26.37, 26.37, 25.93, 25.93, 25.48, 25.48, 25.48, 25.03, 25.03, 24.59, 24.59, 24.14, 24.14, 23.69, 23.25, 23.25, 22.8, 22.35, 22.35, 21.9, 21.9, 21.46, 21.01, 21.01, 20.56, 20.56, 20.12, 20.12, 19.67, 19.67, 19.22, 19.22, 18.78, 18.78, 18.78, 18.78, 18.78, 18.78, 18.78, 19.22, 19.22, 18.78, 18.78, 18.78, 18.78, 18.78, 18.78, 18.33, 18.33, 18.33, 18.33, 18.33, 18.33, 18.33, 17.88, 17.88, 17.88, 17.43, 17.43, 17.43, 16.99, 16.99, 16.99, 16.54, 16.54, 16.54, 16.09, 16.09, 16.09, 16.09, 16.09, 15.65, 15.65, 15.2, 14.75, 14.75, 11.18, 6.26, 4.92, 7.15, 8.94, 9.83, 10.28, 10.73, 10.28, 10.73, 11.62, 12.52, 12.96, 12.96, 12.96, 12.96, 26.82, 26.82, 26.82, 26.82, 26.37, 26.37, 26.37, 26.37, 25.93, 25.93, 25.93, 25.48, 25.48, 25.03, 25.03, 24.59, 24.59, 24.14, 24.14, 23.69, 23.69, 23.25, 23.25, 22.8, 22.35, 22.35, 21.9, 21.46, 21.46, 21.01, 20.56, 20.56, 20.12, 20.12, 19.67, 19.67, 19.67, 19.22, 19.22, 19.22, 19.22, 19.22, 19.22, 19.22, 19.22, 19.22, 19.22, 19.22, 19.22, 18.78, 18.78, 18.78, 18.78, 18.78, 18.78, 18.33, 18.33, 18.33, 18.33, 18.33, 17.88, 17.88, 17.88, 17.43, 17.43, 17.43, 17.43, 16.99, 16.99, 16.99, 16.99, 16.54, 16.54, 16.54, 16.54, 16.54, 16.54, 16.09, 15.65, 15.65, 15.2, 14.75, 12.96, 8.49, 4.92, 6.71, 9.39, 10.28, 10.28, 10.28, 10.73, 11.18, 11.62, 12.52, 12.96, 12.96, 12.96, 12.96, 26.82, 26.82, 26.82, 26.82, 26.37, 26.37, 26.37, 26.37, 25.93, 25.93, 25.93, 25.48, 25.48, 25.03, 25.03, 24.59, 24.59, 24.14, 24.14, 23.69, 23.69, 23.25, 23.25, 22.8, 22.35, 22.35, 21.9, 21.46, 21.46, 21.01, 21.01, 20.56, 20.56, 20.12, 20.12, 20.12, 19.67, 19.67, 19.67, 19.67, 19.67, 19.67, 19.67, 19.67, 19.67, 19.22, 19.22, 19.22, 19.22, 18.78, 18.78, 18.78, 18.78, 18.78, 18.78, 18.78, 18.78, 18.33, 18.33, 18.33, 18.33, 17.88, 17.88, 17.88, 17.43, 17.43, 17.43, 17.43, 17.43, 16.99, 16.99, 16.99, 16.54, 16.54, 16.54, 16.54, 16.54, 16.09, 16.09, 16.09, 15.65, 15.2, 14.3, 11.18, 6.71, 6.71, 9.39, 10.73, 10.73, 10.73, 11.18, 11.62, 12.07, 12.52, 12.96, 12.96, 12.96, 12.96, 26.82, 26.82, 26.82, 26.82, 26.37, 26.37, 26.37, 26.37, 25.93, 25.93, 25.93, 25.48, 25.48, 25.03, 25.03, 25.03, 24.59, 24.59, 24.14, 24.14, 23.69, 23.69, 23.25, 22.8, 22.35, 22.35, 21.9, 21.9, 21.46, 21.46, 21.01, 21.01, 20.56, 20.56, 20.56, 20.56, 20.12, 20.12, 20.12, 20.12, 20.12, 20.12, 19.67, 19.67, 19.67, 19.67, 19.22, 19.22, 19.22, 18.78, 18.78, 18.78, 18.78, 18.78, 18.78, 18.78, 18.78, 18.78, 18.33, 18.33, 18.33, 18.33, 17.88, 17.88, 17.43, 17.43, 17.43, 17.43, 17.43, 17.43, 17.43, 16.99, 16.99, 16.99, 16.99, 16.54, 16.54, 16.54, 16.54, 16.09, 16.09, 15.65, 15.2, 12.96, 8.94, 7.15, 9.39, 10.73, 10.73, 10.73, 11.18, 11.62, 12.07, 12.96, 12.96, 12.96, 12.96, 12.96, 26.82, 26.82, 26.82, 26.82, 26.37, 26.37, 26.37, 26.37, 25.93, 25.93, 25.93, 25.48, 25.48, 25.03, 25.03, 25.03, 24.59, 24.59, 24.14, 24.14, 23.69, 23.69, 23.25, 23.25, 22.35, 22.35, 21.9, 21.9, 21.46, 21.46, 21.46, 21.01, 21.01, 21.01, 21.01, 21.01, 20.56, 20.56, 20.56, 20.56, 20.12, 20.12, 20.12, 19.67, 19.67, 19.67, 19.22, 19.22, 19.22, 19.22, 19.22, 19.22, 19.22, 19.22, 19.22, 18.78, 18.78, 18.78, 18.78, 18.33, 18.33, 18.33, 17.88, 17.88, 17.88, 17.88, 17.43, 17.43, 17.43, 17.43, 17.43, 17.43, 17.43, 16.99, 16.99, 16.99, 16.54, 16.54, 16.54, 16.54, 16.09, 16.09, 15.65, 13.86, 10.73, 8.49, 8.94, 10.73, 10.73, 10.73, 11.18, 11.62, 12.52, 12.96, 12.96, 12.96, 12.96, 12.96, 26.82, 26.82, 26.82, 26.37, 26.37, 26.37, 26.37, 26.37, 25.93, 25.93, 25.93, 25.48, 25.48, 25.03, 25.03, 25.03, 24.59, 24.59, 24.14, 24.14, 23.69, 23.69, 23.25, 23.25, 22.8, 22.35, 22.35, 21.9, 21.9, 21.9, 21.9, 21.46, 21.46, 21.46, 21.46, 21.46, 21.01, 21.01, 21.01, 20.56, 20.56, 20.12, 20.12, 19.67, 19.67, 19.67, 19.22, 19.22, 19.22, 19.22, 19.22, 19.22, 19.22, 19.22, 19.22, 19.22, 18.78, 18.78, 18.78, 18.33, 18.33, 18.33, 18.33, 17.88, 17.88, 17.88, 17.88, 17.88, 17.88, 17.88, 17.88, 17.43, 17.43, 17.43, 16.99, 16.99, 16.99, 16.99, 16.99, 16.99, 16.54, 16.09, 15.65, 14.75, 12.52, 9.83, 8.94, 10.28, 10.73, 10.73, 11.18, 11.62, 12.52, 12.96, 12.96, 12.52, 12.52, 12.52, 26.82, 26.82, 26.37, 26.37, 26.37, 26.37, 26.37, 25.93, 25.93, 25.93, 25.48, 25.48, 25.48, 25.03, 25.03, 24.59, 24.59, 24.59, 24.14, 24.14, 23.69, 23.69, 23.25, 23.25, 22.8, 22.8, 22.35, 22.35, 22.35, 22.35, 22.35, 21.9, 21.9, 21.9, 21.9, 21.46, 21.46, 21.01, 21.01, 20.56, 20.56, 20.12, 20.12, 19.67, 19.67, 19.67, 19.22, 19.22, 19.22, 19.22, 19.22, 19.22, 19.22, 19.22, 19.22, 19.22, 19.22, 18.78, 18.78, 18.78, 18.33, 18.33, 18.33, 18.33, 17.88, 17.88, 17.88, 17.88, 17.88, 17.88, 17.88, 17.88, 17.43, 17.43, 17.43, 16.99, 16.99, 16.99, 16.99, 16.99, 16.99, 16.54, 16.09, 15.2, 13.86, 11.18, 9.83, 9.83, 10.73, 11.18, 11.18, 11.62, 12.52, 12.96, 12.96, 12.52, 12.52, 12.52, 26.82, 26.82, 26.37, 26.37, 26.37, 26.37, 26.37, 25.93, 25.93, 25.93, 25.48, 25.48, 25.48, 25.03, 25.03, 24.59, 24.59, 24.59, 24.14, 24.14, 23.69, 23.69, 23.25, 23.25, 22.8, 22.8, 22.35, 22.35, 22.35, 22.35, 22.35, 21.9, 21.9, 21.9, 21.9, 21.46, 21.46, 21.01, 21.01, 20.56, 20.56, 20.12, 20.12, 19.67, 19.67, 19.67, 19.22, 19.22, 19.22, 19.22, 19.22, 19.22, 19.22, 19.22, 19.22, 19.22, 19.22, 18.78, 18.78, 18.78, 18.33, 18.33, 18.33, 18.33, 17.88, 17.88, 17.88, 17.88, 17.88, 17.88, 17.88, 17.88, 17.43, 17.43, 17.43, 16.99, 16.99, 16.99, 16.99, 16.99, 16.99, 16.54, 16.09, 15.65, 14.3, 12.52, 10.73, 10.28, 10.73, 11.18, 11.62, 12.07, 12.52, 12.96, 12.96, 12.52, 12.52, 12.52]}, {"header": {"parameterCategory": 1, "parameterNumber": 3, "dx": 0.06612293990616946, "dy": 0.0552356325346848, "nx": 98, "ny": 59, "la1": 35.046912555036876, "la2": 31.78801023549047, "lo1": -121.43107172385933, "lo2": -114.95102361305473, "refTime": "2026041107"}, "data": [7.6, 7.6, 8.05, 8.05, 8.49, 8.49, 8.94, 9.39, 9.83, 10.28, 10.73, 11.18, 11.62, 11.62, 12.07, 12.52, 12.52, 12.96, 13.41, 13.86, 13.86, 13.86, 13.86, 13.86, 14.3, 14.3, 14.3, 14.75, 15.2, 15.2, 15.65, 15.65, 15.65, 15.2, 15.2, 15.2, 15.2, 15.2, 15.65, 15.65, 15.65, 15.65, 15.65, 15.2, 15.2, 15.2, 15.2, 15.65, 15.65, 16.09, 16.09, 16.09, 16.54, 16.99, 17.43, 17.88, 17.88, 18.33, 18.33, 18.33, 18.33, 18.33, 18.33, 17.88, 17.43, 16.99, 16.99, 17.43, 17.43, 17.88, 18.33, 18.78, 19.22, 19.67, 19.67, 19.22, 18.78, 18.78, 18.78, 19.67, 20.12, 20.56, 21.01, 21.46, 21.46, 21.46, 21.46, 21.46, 21.9, 21.9, 21.9, 21.46, 21.46, 21.01, 21.01, 20.56, 20.56, 20.56, 7.6, 7.6, 8.05, 8.05, 8.49, 8.49, 8.94, 9.39, 9.83, 10.28, 10.73, 11.18, 11.62, 11.62, 12.07, 12.52, 12.96, 12.96, 13.41, 13.86, 13.86, 13.86, 13.86, 14.3, 14.3, 14.3, 14.75, 14.75, 14.75, 15.2, 15.65, 15.65, 16.09, 15.65, 15.65, 15.2, 15.2, 15.65, 15.65, 16.09, 16.09, 15.65, 15.65, 15.2, 15.2, 15.2, 15.65, 15.65, 15.65, 16.09, 16.09, 16.09, 16.54, 16.99, 17.43, 17.43, 17.88, 18.33, 18.33, 18.33, 18.33, 18.33, 18.33, 17.88, 17.43, 16.99, 16.99, 16.99, 17.43, 17.88, 18.33, 18.78, 18.78, 19.22, 19.22, 19.22, 18.78, 18.78, 18.78, 19.67, 20.12, 20.56, 21.01, 21.46, 21.46, 21.46, 21.46, 21.46, 21.9, 21.9, 21.9, 21.46, 21.46, 21.01, 21.01, 20.56, 20.56, 20.56, 7.15, 7.6, 7.6, 8.05, 8.49, 8.49, 8.94, 9.39, 9.83, 10.28, 10.73, 11.18, 11.62, 11.62, 12.07, 12.52, 12.96, 13.41, 13.41, 13.86, 14.3, 14.3, 14.3, 14.3, 14.3, 14.3, 14.75, 14.75, 14.75, 15.2, 15.2, 15.2, 15.65, 15.65, 16.09, 16.09, 16.09, 16.09, 16.09, 16.09, 16.09, 15.65, 15.65, 15.65, 15.65, 15.65, 15.65, 15.65, 16.09, 16.09, 16.09, 16.54, 16.54, 16.99, 17.43, 17.43, 17.88, 17.88, 18.33, 18.33, 18.33, 18.33, 18.33, 17.88, 17.43, 16.99, 16.99, 16.99, 17.43, 17.88, 18.33, 18.78, 18.78, 18.78, 18.78, 18.78, 18.33, 18.33, 18.78, 19.67, 20.12, 20.56, 21.01, 21.01, 21.01, 21.01, 21.46, 21.46, 21.9, 21.9, 21.46, 21.46, 21.01, 21.01, 21.01, 20.56, 20.56, 20.56, 7.15, 7.6, 7.6, 8.05, 8.49, 8.49, 8.94, 9.39, 9.83, 10.28, 10.73, 11.18, 11.62, 11.62, 12.07, 12.52, 12.96, 13.41, 13.86, 13.86, 14.3, 14.75, 14.75, 14.75, 14.75, 14.75, 14.75, 14.75, 14.75, 14.75, 14.75, 14.75, 14.75, 14.75, 14.75, 15.2, 15.65, 16.09, 16.09, 16.09, 16.09, 16.09, 16.09, 15.65, 15.65, 15.65, 16.09, 16.09, 16.09, 16.09, 16.09, 16.54, 16.99, 16.99, 17.43, 17.43, 17.88, 17.88, 17.88, 17.88, 18.33, 18.33, 18.33, 18.33, 17.88, 17.43, 16.99, 16.54, 16.54, 17.43, 17.88, 18.33, 18.78, 18.78, 18.78, 18.78, 18.33, 18.33, 18.78, 19.22, 20.12, 20.56, 20.56, 20.56, 21.01, 21.01, 21.01, 21.46, 21.46, 21.46, 21.46, 21.46, 21.01, 21.01, 21.01, 21.01, 20.56, 20.56, 7.15, 7.6, 7.6, 8.05, 8.49, 8.49, 8.94, 9.39, 9.83, 10.28, 10.73, 11.18, 11.62, 12.07, 12.07, 12.52, 12.96, 13.41, 13.86, 13.86, 14.3, 14.3, 14.75, 15.2, 15.2, 14.75, 14.75, 14.75, 14.75, 14.75, 14.75, 14.75, 14.3, 13.86, 13.86, 14.3, 14.75, 14.75, 15.2, 15.65, 15.65, 16.09, 15.65, 15.65, 15.65, 15.65, 15.65, 15.65, 16.09, 16.09, 16.54, 16.54, 16.99, 16.99, 17.43, 17.43, 17.43, 17.43, 17.88, 17.88, 17.88, 18.33, 18.33, 18.33, 17.88, 17.43, 16.99, 16.09, 15.65, 15.65, 16.54, 17.43, 17.88, 18.33, 18.33, 18.78, 18.33, 18.33, 18.33, 19.22, 20.12, 20.12, 20.56, 20.56, 20.56, 20.56, 20.56, 21.01, 21.01, 21.46, 21.46, 21.46, 21.01, 21.01, 21.01, 21.01, 20.56, 20.56, 7.15, 7.15, 7.6, 8.05, 8.49, 8.49, 8.94, 9.39, 9.83, 10.28, 10.73, 11.18, 11.62, 12.07, 12.52, 12.52, 12.96, 13.41, 13.86, 14.3, 14.3, 14.3, 14.75, 14.75, 15.2, 15.2, 15.2, 14.75, 14.75, 14.75, 15.2, 15.2, 14.75, 14.75, 14.3, 14.3, 14.3, 14.3, 14.75, 15.2, 15.2, 15.2, 15.2, 15.2, 15.2, 15.2, 15.65, 15.65, 15.65, 15.65, 16.09, 16.09, 16.54, 16.54, 16.54, 16.99, 16.99, 16.99, 17.43, 17.43, 17.88, 18.33, 18.33, 18.33, 18.33, 17.43, 16.99, 16.09, 15.2, 14.75, 14.75, 16.09, 16.99, 17.43, 17.88, 17.88, 17.88, 17.88, 18.33, 19.22, 20.12, 20.12, 20.12, 20.12, 20.12, 20.56, 20.56, 21.01, 21.01, 21.01, 21.01, 21.01, 21.01, 21.01, 21.01, 21.01, 21.01, 20.56, 7.15, 7.15, 7.6, 8.05, 8.49, 8.94, 8.94, 9.39, 9.83, 10.28, 10.73, 11.18, 11.62, 12.07, 12.52, 12.96, 13.41, 13.41, 13.86, 14.3, 14.75, 14.75, 14.75, 14.75, 15.2, 15.2, 15.2, 15.2, 15.65, 15.65, 15.65, 15.2, 15.2, 15.2, 14.75, 14.75, 14.75, 14.3, 14.3, 14.75, 14.75, 14.75, 14.3, 14.3, 14.3, 14.75, 14.75, 14.75, 15.2, 15.2, 15.2, 15.65, 15.65, 16.09, 16.09, 16.54, 16.54, 16.54, 16.99, 17.43, 17.43, 17.88, 18.33, 18.33, 17.88, 17.43, 16.99, 16.09, 15.2, 14.3, 14.3, 15.2, 16.54, 16.99, 16.99, 16.99, 16.99, 17.43, 17.88, 18.78, 19.67, 19.67, 19.67, 19.67, 20.12, 20.12, 20.56, 21.01, 21.01, 21.01, 21.01, 21.01, 21.46, 21.01, 21.01, 21.01, 21.01, 21.01, 7.15, 7.15, 7.6, 8.05, 8.49, 8.94, 9.39, 9.39, 9.83, 10.28, 10.73, 11.18, 11.62, 12.07, 12.52, 12.96, 13.41, 13.86, 14.3, 14.3, 14.75, 15.2, 15.65, 15.65, 16.09, 16.09, 16.09, 16.09, 16.09, 16.09, 15.65, 15.65, 15.2, 14.75, 15.2, 15.2, 15.2, 14.75, 14.3, 14.3, 14.75, 14.75, 14.75, 14.75, 14.3, 14.3, 13.86, 13.86, 14.3, 14.75, 14.75, 14.75, 15.2, 15.65, 16.09, 16.09, 16.09, 16.54, 16.54, 16.99, 17.43, 17.88, 17.88, 17.88, 17.88, 17.88, 16.99, 16.54, 15.65, 14.75, 14.3, 15.2, 16.09, 17.43, 17.43, 16.99, 16.54, 16.99, 17.43, 18.33, 19.22, 19.67, 19.67, 19.67, 20.12, 20.12, 20.56, 21.01, 21.01, 21.01, 21.46, 21.46, 21.46, 21.01, 21.01, 21.01, 21.01, 21.01, 7.15, 7.15, 7.6, 8.05, 8.49, 8.94, 9.39, 9.83, 9.83, 10.28, 10.73, 11.18, 11.62, 12.07, 12.52, 12.96, 13.41, 13.86, 13.86, 14.3, 14.75, 15.2, 15.65, 16.09, 16.09, 16.09, 16.54, 16.54, 16.54, 16.09, 16.09, 15.65, 15.65, 15.2, 15.65, 15.65, 15.65, 15.2, 14.75, 14.75, 14.75, 14.75, 14.75, 14.75, 14.75, 14.75, 14.3, 13.86, 13.86, 14.3, 14.75, 15.2, 15.2, 15.2, 15.65, 16.09, 16.09, 16.09, 16.09, 16.54, 16.99, 16.99, 17.43, 17.88, 18.33, 17.88, 17.43, 16.99, 16.09, 14.75, 14.3, 14.75, 16.09, 17.43, 17.43, 16.99, 16.54, 16.54, 17.43, 18.33, 18.78, 19.22, 19.22, 19.67, 20.12, 20.12, 20.56, 21.01, 21.01, 21.01, 21.46, 21.46, 21.46, 21.46, 21.01, 21.01, 21.01, 21.01, 7.15, 7.15, 7.6, 8.05, 8.49, 8.94, 9.39, 9.83, 10.28, 10.28, 10.73, 11.18, 11.62, 12.07, 12.52, 12.96, 13.41, 13.41, 13.86, 14.3, 14.3, 14.75, 15.2, 15.65, 15.65, 16.09, 16.09, 16.09, 16.09, 16.09, 16.09, 16.09, 16.09, 16.09, 15.65, 15.65, 15.65, 15.65, 15.2, 14.75, 14.75, 14.75, 14.75, 14.75, 14.75, 14.75, 14.75, 14.3, 14.3, 14.75, 14.75, 15.2, 15.2, 15.65, 15.65, 15.65, 15.65, 15.2, 15.2, 15.65, 16.09, 16.99, 17.43, 17.43, 17.88, 18.33, 17.88, 16.99, 16.09, 14.75, 13.86, 14.3, 15.65, 16.99, 17.43, 16.99, 16.54, 16.99, 17.43, 17.88, 18.33, 18.78, 19.22, 19.67, 20.12, 20.56, 21.01, 21.01, 21.01, 21.01, 21.01, 21.46, 21.46, 21.46, 21.46, 21.46, 21.01, 21.01, 7.15, 7.15, 7.6, 8.05, 8.49, 8.94, 9.39, 9.83, 10.28, 10.73, 10.73, 11.18, 11.62, 12.07, 12.52, 12.96, 13.41, 13.86, 13.86, 14.3, 14.75, 15.2, 15.2, 15.65, 16.09, 16.09, 16.09, 16.09, 16.09, 16.54, 16.54, 16.09, 16.09, 16.09, 16.09, 16.09, 15.65, 15.2, 15.2, 14.75, 14.75, 14.75, 14.75, 14.75, 14.75, 14.75, 14.75, 14.75, 14.75, 15.2, 14.75, 14.75, 14.75, 14.75, 15.2, 15.2, 15.2, 14.75, 14.75, 15.2, 16.09, 16.54, 16.99, 17.43, 17.88, 17.88, 17.88, 17.43, 16.54, 15.2, 13.86, 13.86, 15.65, 16.54, 16.99, 16.99, 16.99, 16.99, 17.88, 17.88, 18.33, 18.33, 18.78, 19.67, 20.12, 20.56, 21.01, 21.01, 21.01, 21.01, 21.01, 21.46, 21.9, 21.9, 21.46, 21.46, 21.01, 21.01, 7.15, 7.6, 7.6, 8.05, 8.49, 8.94, 9.39, 9.83, 10.28, 10.73, 10.73, 11.18, 11.62, 12.07, 12.52, 12.96, 13.41, 13.86, 14.3, 14.75, 14.75, 15.2, 15.65, 15.65, 16.09, 16.09, 16.54, 16.54, 16.54, 16.54, 16.54, 16.54, 16.54, 16.54, 16.54, 16.54, 16.09, 15.65, 15.65, 15.2, 14.75, 14.75, 14.75, 14.75, 14.75, 14.75, 14.75, 14.75, 14.75, 15.2, 14.75, 15.2, 14.75, 14.75, 14.3, 14.3, 14.3, 14.75, 15.2, 15.65, 16.09, 16.54, 16.99, 17.43, 17.88, 17.88, 17.43, 16.99, 16.09, 14.75, 13.86, 13.86, 15.2, 16.54, 16.99, 16.99, 16.99, 17.43, 17.88, 18.33, 18.33, 18.33, 18.78, 19.67, 20.12, 20.56, 20.56, 21.01, 21.01, 21.01, 21.01, 21.46, 21.9, 21.9, 21.9, 21.46, 21.01, 21.01, 7.15, 7.6, 7.6, 8.05, 8.49, 8.94, 9.39, 9.83, 10.28, 10.73, 11.18, 11.18, 11.62, 12.07, 12.52, 12.96, 13.41, 13.86, 13.86, 14.3, 14.75, 15.2, 15.2, 15.65, 16.09, 16.09, 16.54, 16.54, 16.54, 16.54, 16.54, 16.09, 16.09, 16.09, 16.54, 16.54, 16.54, 16.09, 15.2, 14.75, 14.75, 14.75, 14.75, 14.75, 14.75, 14.75, 14.3, 14.75, 14.75, 15.2, 15.65, 15.65, 15.65, 15.65, 15.65, 15.65, 15.65, 15.65, 15.65, 16.09, 16.54, 16.99, 17.43, 17.43, 17.88, 17.88, 17.43, 16.54, 15.2, 13.86, 12.96, 12.96, 14.3, 15.65, 16.54, 16.54, 16.99, 17.43, 17.88, 17.88, 17.88, 17.88, 18.33, 19.22, 19.67, 20.12, 20.56, 21.01, 21.01, 21.01, 21.01, 21.46, 21.9, 21.9, 21.9, 21.46, 21.01, 21.01, 7.15, 7.6, 8.05, 8.05, 8.49, 8.94, 9.39, 9.83, 10.28, 10.73, 11.18, 11.18, 11.62, 12.07, 12.52, 12.96, 13.41, 13.86, 14.3, 14.3, 14.75, 15.2, 15.2, 15.65, 16.09, 16.09, 16.09, 16.09, 16.54, 16.54, 16.09, 16.09, 16.09, 16.09, 16.54, 16.09, 16.09, 16.09, 15.2, 14.75, 14.75, 14.75, 14.75, 14.75, 14.75, 14.75, 14.75, 15.2, 15.65, 15.65, 15.65, 16.09, 16.54, 16.99, 16.99, 17.43, 17.43, 16.99, 16.54, 16.99, 17.43, 17.43, 17.43, 17.88, 17.88, 18.33, 17.88, 17.43, 16.54, 15.2, 13.86, 12.96, 13.41, 14.75, 15.65, 16.09, 16.54, 17.43, 17.88, 17.88, 17.43, 17.43, 18.33, 19.22, 19.67, 19.67, 20.12, 20.12, 20.56, 20.56, 20.56, 21.01, 21.46, 21.9, 21.46, 21.46, 21.01, 20.56, 7.15, 7.6, 8.05, 8.05, 8.49, 8.94, 9.39, 9.83, 10.28, 10.73, 11.18, 11.18, 11.62, 12.07, 12.52, 12.96, 13.41, 13.86, 14.3, 14.3, 14.75, 15.2, 15.65, 15.65, 16.09, 16.09, 16.09, 16.09, 16.09, 16.09, 16.09, 16.09, 16.09, 16.09, 16.09, 16.09, 16.09, 16.09, 15.65, 14.75, 14.75, 14.75, 14.75, 14.75, 14.75, 14.75, 14.75, 15.2, 15.65, 15.65, 15.65, 16.09, 16.54, 16.99, 17.43, 17.88, 17.88, 17.88, 17.43, 17.43, 17.88, 17.88, 18.33, 18.33, 18.78, 18.78, 19.22, 18.78, 18.33, 16.99, 16.09, 14.75, 13.41, 13.86, 14.75, 15.2, 16.09, 16.99, 17.43, 17.43, 16.99, 17.43, 17.88, 18.78, 19.67, 19.67, 19.67, 19.67, 19.67, 19.67, 19.67, 20.12, 20.56, 21.01, 21.01, 20.56, 20.56, 20.56, 7.15, 7.6, 8.05, 8.49, 8.49, 8.94, 9.39, 9.83, 10.28, 10.73, 10.73, 11.18, 11.62, 12.07, 12.52, 12.96, 13.41, 13.86, 14.3, 14.3, 14.75, 15.2, 15.65, 15.65, 16.09, 16.09, 16.09, 16.09, 16.09, 16.09, 16.09, 16.09, 16.09, 16.09, 16.09, 16.09, 16.54, 16.09, 15.65, 15.2, 14.75, 14.75, 14.75, 14.75, 14.75, 14.75, 14.75, 15.2, 15.65, 16.09, 15.65, 15.65, 16.09, 16.54, 16.99, 16.99, 17.43, 17.88, 18.33, 17.88, 18.33, 18.33, 18.78, 19.22, 19.22, 19.67, 19.67, 19.67, 19.22, 18.33, 17.43, 16.09, 14.3, 13.41, 13.41, 14.3, 15.65, 16.54, 16.99, 16.99, 16.54, 16.99, 17.43, 18.33, 19.22, 19.67, 19.67, 19.67, 19.22, 19.22, 19.22, 19.67, 20.12, 20.12, 20.12, 20.12, 20.12, 20.12, 7.15, 7.6, 8.05, 8.49, 8.49, 8.94, 9.39, 9.83, 10.28, 10.28, 10.73, 11.18, 11.62, 12.07, 12.52, 12.96, 13.41, 13.86, 14.3, 14.75, 14.75, 15.2, 15.65, 15.65, 16.09, 16.09, 16.09, 16.09, 16.09, 16.09, 16.09, 16.09, 16.09, 16.09, 16.09, 16.09, 16.09, 15.65, 15.2, 15.2, 14.75, 14.75, 14.3, 14.3, 14.3, 14.75, 14.75, 15.2, 15.65, 15.65, 15.65, 16.09, 16.09, 16.09, 16.54, 16.54, 17.43, 17.88, 18.33, 18.33, 18.33, 18.33, 18.78, 19.22, 19.67, 19.67, 19.67, 19.67, 19.22, 18.78, 17.88, 16.54, 15.2, 13.41, 12.96, 13.41, 14.75, 15.65, 15.65, 16.09, 15.65, 16.09, 16.99, 17.88, 18.33, 18.78, 19.67, 19.67, 19.22, 18.78, 18.78, 19.22, 19.67, 19.67, 19.67, 19.67, 19.67, 19.67, 7.15, 7.6, 8.05, 8.49, 8.49, 8.94, 9.39, 9.83, 10.28, 10.28, 10.73, 11.18, 11.62, 12.07, 12.52, 12.96, 13.41, 13.86, 14.3, 14.75, 14.75, 15.2, 15.65, 15.65, 16.09, 16.09, 16.09, 16.09, 16.09, 16.09, 16.09, 16.09, 16.09, 16.09, 16.09, 16.09, 15.65, 15.65, 15.2, 14.75, 14.75, 14.3, 14.3, 13.86, 14.3, 14.3, 14.75, 14.75, 15.2, 15.2, 15.2, 15.65, 16.09, 16.09, 16.54, 16.54, 16.99, 17.43, 17.43, 17.88, 17.88, 17.88, 18.33, 18.78, 19.22, 19.22, 19.22, 19.22, 19.22, 19.22, 18.33, 17.43, 15.2, 13.41, 12.96, 13.41, 14.75, 14.75, 14.75, 14.75, 14.75, 15.2, 16.09, 17.88, 18.33, 18.78, 18.78, 19.22, 19.22, 19.22, 18.78, 18.78, 19.22, 19.22, 19.22, 19.22, 18.78, 18.78, 7.15, 7.6, 8.05, 8.49, 8.49, 8.94, 9.39, 9.83, 9.83, 10.28, 10.73, 11.18, 11.62, 12.07, 12.52, 12.52, 12.96, 13.86, 14.3, 14.75, 15.2, 15.2, 15.65, 15.65, 16.09, 16.09, 16.54, 16.09, 16.09, 16.09, 16.09, 16.09, 16.09, 16.09, 16.09, 16.09, 15.65, 15.65, 15.2, 14.75, 14.75, 14.75, 14.3, 14.3, 14.3, 14.75, 14.75, 14.75, 14.75, 14.75, 14.75, 15.2, 15.65, 16.09, 16.09, 16.54, 16.54, 16.99, 16.99, 17.43, 17.43, 17.88, 17.88, 18.33, 18.33, 18.78, 18.78, 18.78, 19.22, 19.22, 19.22, 18.33, 15.65, 13.41, 12.96, 13.86, 15.2, 15.65, 15.2, 15.2, 15.65, 16.09, 16.99, 17.88, 17.88, 18.33, 18.78, 19.22, 19.22, 19.22, 18.78, 18.78, 19.22, 19.22, 19.22, 18.78, 18.78, 18.78, 7.15, 7.6, 8.05, 8.05, 8.49, 8.94, 9.39, 9.39, 9.83, 10.28, 10.73, 11.18, 11.62, 11.62, 12.07, 12.52, 12.96, 13.41, 13.86, 14.3, 14.75, 15.2, 15.65, 15.65, 16.09, 16.09, 16.54, 16.54, 16.54, 16.09, 16.09, 16.09, 16.09, 16.09, 16.09, 15.65, 15.65, 15.65, 15.2, 15.2, 14.75, 14.75, 14.75, 14.75, 14.75, 14.3, 14.3, 14.75, 14.75, 14.75, 14.75, 15.2, 15.65, 15.65, 16.09, 16.09, 16.54, 16.99, 16.99, 16.99, 17.43, 17.88, 17.88, 17.88, 18.33, 18.33, 18.33, 18.78, 18.78, 19.22, 19.22, 18.78, 16.54, 13.41, 13.41, 14.3, 15.65, 16.09, 16.09, 16.09, 16.09, 16.54, 17.43, 17.88, 18.33, 18.78, 19.22, 19.22, 19.22, 19.22, 19.22, 18.78, 19.22, 19.22, 18.78, 18.78, 18.33, 18.33, 7.15, 7.6, 8.05, 8.05, 8.49, 8.94, 9.39, 9.39, 9.83, 10.28, 10.73, 10.73, 11.18, 11.62, 12.07, 12.52, 12.96, 13.41, 13.86, 14.3, 14.75, 15.2, 15.65, 15.65, 16.09, 16.09, 16.09, 16.54, 16.54, 16.09, 16.09, 16.09, 16.09, 16.09, 16.09, 15.65, 15.65, 15.65, 15.2, 15.2, 14.75, 14.75, 14.75, 14.75, 14.75, 14.3, 14.75, 14.75, 14.75, 14.75, 15.2, 15.2, 15.65, 15.65, 16.09, 16.09, 16.54, 16.99, 16.99, 16.99, 17.43, 17.43, 17.88, 17.88, 18.33, 18.33, 18.33, 18.33, 18.78, 18.78, 18.78, 18.78, 17.43, 14.3, 13.86, 14.75, 16.54, 16.99, 16.99, 16.99, 16.99, 16.99, 16.99, 17.88, 18.33, 18.78, 19.22, 19.22, 19.22, 19.22, 19.22, 19.22, 19.22, 19.22, 19.22, 18.78, 18.33, 18.33, 7.15, 7.6, 7.6, 8.05, 8.49, 8.94, 8.94, 9.39, 9.83, 10.28, 10.28, 10.73, 11.18, 11.62, 12.07, 12.52, 12.96, 13.41, 13.86, 14.3, 14.75, 14.75, 15.2, 15.65, 15.65, 16.09, 16.09, 16.09, 16.09, 16.09, 16.09, 16.09, 16.09, 16.09, 15.65, 15.65, 15.65, 15.2, 15.2, 14.75, 14.75, 14.75, 14.75, 14.75, 14.75, 14.75, 14.75, 14.75, 14.75, 15.2, 15.2, 15.65, 15.65, 15.65, 16.09, 16.09, 16.09, 16.54, 16.99, 16.99, 16.99, 17.43, 17.88, 17.88, 18.33, 18.33, 18.33, 18.33, 18.33, 18.33, 18.33, 17.88, 16.54, 13.86, 15.2, 15.2, 16.09, 16.54, 17.43, 17.88, 17.88, 17.88, 17.43, 17.43, 17.88, 18.33, 18.78, 19.22, 19.22, 19.22, 19.22, 19.22, 19.22, 19.22, 19.22, 18.78, 18.33, 18.33, 7.15, 7.15, 7.15, 8.05, 8.49, 8.94, 8.94, 9.39, 9.83, 9.83, 10.28, 10.73, 11.18, 11.62, 12.07, 12.07, 12.52, 12.96, 13.41, 13.86, 14.3, 14.75, 15.2, 15.2, 15.65, 15.65, 15.65, 16.09, 16.09, 16.09, 16.09, 16.09, 16.09, 15.65, 15.65, 15.65, 15.65, 15.2, 15.2, 14.75, 14.75, 14.75, 14.75, 14.75, 14.75, 14.75, 15.2, 15.2, 15.2, 15.2, 15.65, 15.65, 15.65, 15.65, 16.09, 16.09, 16.09, 16.09, 16.09, 16.99, 16.99, 16.99, 17.43, 17.88, 17.88, 17.88, 17.88, 18.33, 18.33, 18.33, 18.33, 17.88, 13.86, 14.75, 16.09, 15.2, 15.65, 16.54, 17.43, 17.88, 18.33, 18.33, 17.88, 17.43, 17.88, 18.33, 18.78, 18.78, 19.22, 19.22, 19.22, 19.22, 19.22, 19.22, 19.22, 18.78, 18.33, 18.33, 7.15, 7.15, 7.15, 7.6, 8.49, 8.49, 8.94, 9.39, 9.39, 9.83, 10.28, 10.73, 10.73, 11.18, 11.62, 12.07, 12.52, 12.96, 13.41, 13.86, 14.3, 14.3, 14.75, 15.2, 15.2, 15.65, 15.65, 15.65, 15.65, 15.65, 15.65, 15.65, 15.65, 15.65, 15.65, 15.65, 15.65, 15.2, 15.2, 15.2, 14.75, 14.75, 14.75, 15.2, 15.2, 15.2, 15.2, 15.2, 15.2, 15.2, 15.65, 15.65, 15.65, 15.65, 16.09, 16.09, 16.09, 16.09, 15.65, 16.09, 16.54, 16.99, 16.99, 17.43, 17.43, 17.88, 17.88, 17.88, 18.33, 18.33, 18.33, 17.43, 15.65, 14.75, 15.65, 15.2, 15.2, 16.09, 16.99, 17.88, 18.33, 18.78, 18.33, 17.88, 17.88, 18.33, 18.78, 19.22, 19.22, 19.22, 18.78, 19.22, 19.22, 19.22, 19.22, 18.78, 18.33, 18.33, 6.71, 6.71, 7.15, 7.6, 7.6, 8.05, 8.94, 8.94, 9.39, 9.83, 9.83, 10.28, 10.73, 11.18, 11.62, 12.07, 12.52, 12.96, 12.96, 13.41, 13.86, 14.3, 14.75, 14.75, 15.2, 15.2, 15.65, 15.65, 15.65, 15.65, 15.65, 15.65, 15.65, 15.65, 15.65, 15.65, 15.2, 15.2, 15.2, 15.2, 15.2, 15.2, 15.2, 15.2, 15.2, 15.2, 15.2, 15.2, 15.2, 15.2, 15.65, 15.65, 15.65, 16.09, 16.09, 16.09, 16.09, 16.09, 16.09, 15.65, 16.09, 16.54, 16.99, 16.99, 16.99, 17.43, 17.43, 17.43, 17.88, 18.33, 18.33, 17.88, 16.54, 15.2, 15.2, 14.75, 14.75, 16.09, 16.99, 17.88, 18.33, 18.33, 18.33, 18.33, 18.33, 18.78, 18.78, 19.22, 19.22, 19.22, 18.78, 18.78, 18.78, 18.78, 18.78, 18.78, 18.33, 18.33, 6.71, 6.71, 7.15, 7.15, 7.6, 8.05, 8.49, 8.94, 9.39, 9.39, 9.83, 10.28, 10.73, 11.18, 11.18, 11.62, 12.07, 12.52, 12.96, 13.41, 13.86, 13.86, 14.3, 14.75, 14.75, 15.2, 15.2, 15.2, 15.2, 15.65, 15.65, 15.2, 15.2, 15.2, 15.2, 15.2, 15.2, 15.2, 15.2, 15.2, 15.2, 15.2, 15.2, 15.2, 15.2, 15.2, 15.2, 15.2, 15.2, 15.65, 15.65, 15.65, 15.65, 15.65, 16.09, 16.09, 16.09, 16.09, 16.09, 16.09, 16.09, 16.09, 16.54, 16.54, 16.99, 16.99, 16.99, 16.99, 17.43, 17.88, 18.33, 17.88, 17.43, 16.09, 14.75, 13.86, 13.86, 15.65, 16.99, 17.43, 17.88, 17.88, 17.88, 17.88, 18.33, 18.33, 18.78, 19.22, 19.22, 19.22, 19.22, 18.33, 17.88, 18.33, 18.33, 18.33, 18.33, 18.33, 6.71, 6.71, 6.71, 7.15, 7.6, 7.6, 8.05, 8.49, 8.94, 9.39, 9.83, 9.83, 10.28, 10.73, 11.18, 11.62, 12.07, 12.52, 12.96, 12.96, 13.41, 13.86, 14.3, 14.3, 14.75, 14.75, 15.2, 15.2, 15.2, 15.2, 15.2, 15.2, 15.2, 15.2, 15.2, 15.2, 15.2, 15.2, 15.2, 15.2, 15.2, 15.2, 15.2, 15.2, 15.2, 15.2, 15.2, 15.2, 15.65, 15.65, 15.65, 15.65, 15.65, 15.65, 15.65, 15.65, 16.09, 16.09, 16.09, 16.54, 16.09, 16.09, 16.09, 16.09, 16.54, 16.54, 16.54, 16.99, 17.43, 17.43, 17.88, 17.88, 17.88, 16.99, 15.65, 13.86, 12.96, 14.75, 16.54, 16.99, 16.99, 17.43, 17.43, 17.88, 17.88, 18.33, 18.78, 18.78, 19.22, 19.22, 19.22, 18.78, 17.88, 17.43, 17.43, 17.88, 17.88, 17.88, 6.26, 6.26, 6.71, 6.71, 7.15, 7.6, 8.05, 8.05, 8.49, 8.94, 9.39, 9.83, 10.28, 10.73, 11.18, 11.18, 11.62, 12.07, 12.52, 12.96, 13.41, 13.41, 13.86, 14.3, 14.3, 14.75, 14.75, 14.75, 14.75, 14.75, 14.75, 14.75, 14.75, 14.75, 14.75, 14.75, 15.2, 15.2, 15.2, 15.2, 15.2, 15.2, 15.2, 15.2, 15.2, 15.65, 15.65, 15.65, 15.65, 15.65, 15.65, 15.65, 15.65, 15.65, 16.09, 16.09, 16.09, 16.09, 16.09, 16.09, 16.09, 16.09, 16.09, 16.09, 16.09, 16.54, 16.54, 16.99, 16.99, 17.43, 17.43, 17.88, 17.88, 17.43, 16.54, 15.2, 13.86, 14.3, 15.65, 16.54, 16.99, 16.99, 17.43, 17.43, 17.88, 18.33, 18.78, 18.78, 19.22, 19.22, 19.22, 19.22, 17.88, 17.43, 17.43, 17.43, 17.43, 17.43, 6.26, 6.26, 6.26, 6.71, 7.15, 7.15, 7.6, 8.05, 8.49, 8.49, 9.39, 9.83, 9.83, 10.28, 10.73, 11.18, 11.62, 12.07, 12.07, 12.52, 12.96, 13.41, 13.41, 13.86, 13.86, 13.86, 14.3, 14.3, 14.3, 14.75, 14.75, 14.75, 14.75, 14.75, 14.75, 14.75, 14.75, 14.75, 15.2, 15.2, 15.2, 15.2, 15.2, 15.2, 15.2, 15.2, 15.65, 15.65, 15.65, 15.65, 15.65, 15.65, 15.65, 15.65, 16.09, 16.09, 16.09, 16.09, 16.09, 16.09, 16.09, 16.09, 16.09, 16.09, 16.09, 16.09, 16.54, 16.54, 16.99, 17.43, 17.43, 17.43, 17.43, 17.43, 16.99, 16.09, 15.65, 14.75, 14.3, 15.65, 16.54, 16.54, 16.99, 17.43, 17.88, 18.33, 18.78, 19.22, 19.22, 19.22, 19.22, 19.22, 18.78, 17.88, 17.43, 16.99, 16.99, 16.99, 5.81, 5.81, 6.26, 6.26, 6.71, 7.15, 7.6, 7.6, 8.05, 8.49, 8.94, 9.39, 9.83, 10.28, 10.73, 10.73, 11.18, 11.62, 12.07, 12.52, 12.52, 12.96, 12.96, 13.41, 13.41, 13.86, 13.86, 13.86, 14.3, 14.3, 14.3, 14.3, 14.3, 14.3, 14.3, 14.75, 14.75, 14.75, 14.75, 14.75, 15.2, 15.2, 15.2, 15.2, 15.2, 15.2, 15.2, 15.2, 15.65, 15.65, 15.65, 15.65, 15.65, 15.65, 15.65, 16.09, 16.09, 16.09, 16.09, 16.09, 16.09, 16.09, 16.09, 16.09, 16.09, 16.09, 16.09, 16.09, 16.54, 16.99, 17.43, 16.99, 16.99, 16.99, 16.99, 16.54, 16.54, 16.09, 14.75, 14.3, 15.65, 16.09, 16.54, 16.99, 17.43, 18.33, 18.78, 19.22, 19.67, 19.67, 19.67, 19.22, 19.22, 18.33, 17.43, 16.99, 16.99, 16.99, 5.81, 5.81, 5.81, 6.26, 6.71, 6.71, 7.15, 7.6, 8.05, 8.05, 8.49, 8.94, 9.39, 9.83, 10.28, 10.73, 11.18, 11.62, 11.62, 12.07, 12.52, 12.52, 12.52, 12.96, 12.96, 13.41, 13.41, 13.86, 13.86, 13.86, 13.86, 14.3, 14.3, 14.3, 14.3, 14.3, 14.3, 14.75, 14.75, 14.75, 14.75, 14.75, 15.2, 15.2, 15.2, 15.2, 15.2, 15.2, 15.2, 15.2, 15.65, 15.65, 15.65, 15.65, 15.65, 15.65, 16.09, 16.09, 16.09, 16.09, 16.09, 16.09, 16.09, 16.09, 16.09, 16.09, 16.09, 16.09, 16.54, 16.54, 16.99, 16.99, 16.99, 16.54, 16.54, 16.09, 16.54, 16.54, 15.65, 13.86, 14.3, 15.65, 16.09, 16.54, 17.43, 17.88, 18.33, 19.22, 19.67, 19.67, 19.67, 19.22, 19.22, 18.78, 17.88, 17.43, 17.43, 17.43, 5.36, 5.36, 5.81, 5.81, 6.26, 6.71, 6.71, 7.15, 7.6, 8.05, 8.49, 8.49, 8.94, 9.83, 10.28, 10.28, 10.73, 11.18, 11.62, 11.62, 11.62, 12.07, 12.52, 12.52, 12.96, 12.96, 12.96, 13.41, 13.41, 13.41, 13.86, 13.86, 13.86, 13.86, 14.3, 14.3, 14.3, 14.3, 14.3, 14.75, 14.75, 14.75, 14.75, 14.75, 15.2, 15.2, 15.2, 15.2, 15.2, 15.2, 15.2, 15.2, 15.65, 15.65, 15.65, 15.65, 15.65, 16.09, 16.09, 16.09, 16.09, 16.09, 16.09, 16.09, 16.09, 16.09, 16.54, 16.54, 16.54, 16.54, 16.99, 16.99, 16.99, 16.54, 16.09, 15.65, 16.54, 16.54, 15.65, 14.75, 13.86, 14.75, 15.65, 16.54, 16.99, 17.43, 17.88, 18.78, 19.22, 19.22, 19.22, 19.22, 19.22, 18.78, 18.33, 17.88, 17.88, 17.88, 5.36, 5.36, 5.36, 5.81, 5.81, 6.26, 6.71, 7.15, 7.6, 7.6, 8.05, 8.49, 8.94, 8.94, 9.83, 10.28, 10.73, 10.73, 10.73, 11.18, 11.62, 11.62, 12.07, 12.07, 12.52, 12.52, 12.96, 12.96, 12.96, 13.41, 13.41, 13.41, 13.86, 13.86, 13.86, 13.86, 14.3, 14.3, 14.3, 14.3, 14.75, 14.75, 14.75, 14.75, 14.75, 15.2, 15.2, 15.2, 15.2, 15.2, 15.2, 15.2, 15.2, 15.2, 15.2, 15.65, 15.65, 15.65, 15.65, 15.65, 15.65, 15.65, 15.65, 15.65, 16.09, 16.09, 16.54, 16.54, 16.99, 16.99, 16.99, 16.99, 16.99, 16.99, 16.09, 15.65, 16.09, 16.54, 15.65, 14.75, 14.3, 14.3, 15.2, 15.65, 16.54, 16.99, 17.43, 18.33, 18.78, 19.22, 19.22, 19.22, 18.78, 18.78, 18.33, 18.33, 18.33, 18.33, 4.92, 4.92, 5.36, 5.36, 5.81, 6.26, 6.26, 6.71, 7.15, 7.6, 8.05, 8.49, 8.49, 8.94, 9.83, 9.83, 9.83, 10.28, 10.73, 10.73, 11.18, 11.62, 11.62, 12.07, 12.07, 12.52, 12.52, 12.52, 12.96, 12.96, 12.96, 13.41, 13.41, 13.41, 13.41, 13.86, 13.86, 13.86, 14.3, 14.3, 14.3, 14.3, 14.75, 14.75, 14.75, 14.75, 15.2, 15.2, 15.2, 15.2, 15.2, 15.2, 15.2, 15.2, 15.2, 15.2, 15.2, 15.2, 15.65, 15.65, 15.65, 15.65, 15.65, 15.65, 15.65, 16.09, 16.09, 16.54, 16.99, 16.99, 16.99, 16.99, 16.99, 16.99, 16.54, 15.65, 15.65, 16.09, 15.65, 15.2, 14.75, 14.3, 14.75, 15.2, 16.09, 16.54, 16.99, 17.88, 18.33, 18.33, 18.33, 18.78, 18.78, 18.78, 18.78, 18.33, 18.33, 18.33, 4.92, 4.92, 4.92, 5.36, 5.81, 5.81, 6.26, 6.71, 7.15, 7.6, 7.6, 8.05, 8.49, 8.94, 8.94, 9.39, 9.83, 10.28, 10.28, 10.73, 10.73, 11.18, 11.18, 11.62, 11.62, 12.07, 12.07, 12.52, 12.52, 12.52, 12.52, 12.96, 12.96, 12.96, 13.41, 13.41, 13.41, 13.86, 13.86, 13.86, 14.3, 14.3, 14.3, 14.75, 14.75, 14.75, 14.75, 14.75, 15.2, 15.2, 15.2, 15.2, 15.2, 15.2, 15.2, 15.2, 15.2, 15.2, 15.2, 15.2, 15.2, 15.2, 15.65, 15.65, 15.65, 16.09, 16.09, 16.54, 16.54, 16.99, 16.99, 16.99, 16.99, 16.54, 16.54, 15.65, 15.65, 15.65, 15.65, 15.2, 14.75, 14.3, 14.75, 14.75, 15.65, 16.09, 16.99, 17.43, 17.88, 17.88, 17.88, 18.33, 18.33, 18.33, 18.78, 18.78, 18.33, 18.33, 4.47, 4.47, 4.92, 5.36, 5.36, 5.81, 6.26, 6.71, 6.71, 7.15, 7.6, 8.05, 8.49, 8.49, 8.94, 8.94, 9.39, 9.83, 10.28, 10.28, 10.73, 10.73, 11.18, 11.18, 11.62, 11.62, 11.62, 12.07, 12.07, 12.07, 12.52, 12.52, 12.52, 12.96, 12.96, 12.96, 13.41, 13.41, 13.41, 13.86, 13.86, 13.86, 14.3, 14.3, 14.75, 14.75, 14.75, 14.75, 14.75, 14.75, 15.2, 15.2, 15.2, 15.2, 15.2, 15.2, 15.2, 15.2, 15.2, 15.2, 15.2, 15.2, 15.2, 15.65, 15.65, 16.09, 16.09, 16.54, 16.54, 16.99, 16.99, 16.99, 16.99, 16.54, 16.54, 16.09, 15.65, 15.2, 14.75, 14.75, 14.3, 14.3, 14.3, 14.75, 15.2, 16.09, 16.54, 17.43, 17.43, 17.43, 17.88, 17.88, 17.88, 18.33, 18.33, 18.33, 18.33, 18.33, 4.47, 4.47, 4.92, 5.36, 5.36, 5.81, 6.26, 6.26, 6.71, 7.15, 7.6, 8.05, 8.05, 8.49, 8.49, 8.94, 9.39, 9.83, 9.83, 10.28, 10.28, 10.73, 10.73, 11.18, 11.18, 11.18, 11.62, 11.62, 11.62, 12.07, 12.07, 12.07, 12.07, 12.52, 12.52, 12.96, 12.96, 12.96, 13.41, 13.41, 13.41, 13.86, 13.86, 14.3, 14.3, 14.75, 14.75, 14.75, 14.75, 14.75, 14.75, 14.75, 14.75, 14.75, 14.75, 15.2, 15.2, 15.2, 15.2, 15.2, 15.2, 15.2, 15.2, 15.65, 15.65, 16.09, 16.09, 16.54, 16.54, 16.54, 16.99, 16.99, 16.99, 16.54, 16.09, 15.65, 15.65, 15.2, 14.75, 14.75, 14.3, 13.86, 14.3, 14.3, 14.75, 15.65, 16.54, 16.99, 17.43, 17.43, 17.43, 17.88, 17.88, 17.88, 18.33, 18.33, 18.33, 18.33, 4.47, 4.47, 4.92, 4.92, 5.36, 5.81, 5.81, 6.26, 6.71, 7.15, 7.6, 7.6, 8.05, 8.05, 8.49, 8.49, 8.94, 9.39, 9.83, 9.83, 9.83, 10.28, 10.28, 10.73, 10.73, 11.18, 11.18, 11.18, 11.62, 11.62, 11.62, 11.62, 12.07, 12.07, 12.07, 12.52, 12.52, 12.96, 12.96, 12.96, 13.41, 13.41, 13.86, 13.86, 13.86, 14.3, 14.3, 14.3, 14.75, 14.75, 14.75, 14.75, 14.75, 14.75, 14.75, 14.75, 14.75, 14.75, 15.2, 15.2, 15.2, 15.2, 15.2, 15.65, 15.65, 16.09, 16.09, 16.09, 16.54, 16.54, 16.99, 16.99, 16.99, 16.99, 16.09, 15.65, 15.65, 15.65, 15.2, 14.75, 14.3, 13.41, 13.41, 13.86, 14.75, 15.2, 16.09, 16.54, 16.99, 17.43, 17.43, 17.43, 17.88, 17.88, 17.88, 18.33, 18.33, 18.33, 4.47, 4.47, 4.92, 4.92, 5.36, 5.81, 5.81, 6.26, 6.71, 6.71, 7.15, 7.15, 7.6, 8.05, 8.05, 8.49, 8.49, 8.94, 9.39, 9.39, 9.83, 9.83, 10.28, 10.28, 10.28, 10.73, 10.73, 10.73, 11.18, 11.18, 11.18, 11.62, 11.62, 11.62, 12.07, 12.07, 12.52, 12.52, 12.52, 12.96, 12.96, 12.96, 13.41, 13.41, 13.86, 13.86, 14.3, 14.3, 14.3, 14.3, 14.3, 14.3, 14.75, 14.75, 14.75, 14.75, 14.75, 14.75, 14.75, 15.2, 15.2, 15.2, 15.2, 15.65, 15.65, 16.09, 16.09, 16.09, 16.54, 16.54, 16.54, 16.99, 16.99, 17.43, 16.54, 15.65, 15.2, 15.2, 15.2, 15.2, 14.3, 13.41, 13.41, 13.86, 14.3, 14.75, 15.65, 16.54, 16.99, 16.99, 17.43, 17.43, 17.43, 17.88, 17.88, 18.33, 18.33, 18.33, 4.47, 4.47, 4.47, 4.92, 5.36, 5.36, 5.81, 6.26, 6.26, 6.71, 6.71, 7.15, 7.6, 7.6, 8.05, 8.05, 8.49, 8.49, 8.94, 9.39, 9.39, 9.83, 9.83, 9.83, 10.28, 10.28, 10.28, 10.73, 10.73, 10.73, 11.18, 11.18, 11.18, 11.62, 11.62, 12.07, 12.07, 12.07, 12.52, 12.52, 12.52, 12.96, 12.96, 13.41, 13.41, 13.86, 13.86, 13.86, 14.3, 14.3, 14.3, 14.3, 14.3, 14.3, 14.75, 14.75, 14.75, 14.75, 14.75, 14.75, 15.2, 15.2, 15.2, 15.65, 15.65, 16.09, 16.09, 16.09, 16.54, 16.54, 16.54, 16.54, 16.99, 17.43, 17.43, 16.54, 15.2, 14.75, 15.2, 15.2, 14.75, 13.86, 13.41, 13.41, 13.86, 14.3, 15.2, 16.09, 16.54, 16.99, 16.99, 16.99, 16.99, 17.43, 17.88, 18.33, 18.33, 18.33, 4.47, 4.47, 4.47, 4.92, 5.36, 5.36, 5.81, 6.26, 6.26, 6.26, 6.71, 7.15, 7.15, 7.6, 7.6, 8.05, 8.05, 8.49, 8.49, 8.94, 8.94, 9.39, 9.39, 9.83, 9.83, 9.83, 10.28, 10.28, 10.28, 10.73, 10.73, 10.73, 11.18, 11.18, 11.18, 11.62, 11.62, 12.07, 12.07, 12.07, 12.52, 12.52, 12.96, 12.96, 13.41, 13.41, 13.41, 13.86, 13.86, 13.86, 13.86, 14.3, 14.3, 14.3, 14.3, 14.3, 14.75, 14.75, 14.75, 14.75, 15.2, 15.2, 15.2, 15.65, 15.65, 15.65, 16.09, 16.09, 16.54, 16.54, 16.54, 16.54, 16.99, 16.99, 17.43, 17.43, 16.54, 15.2, 15.2, 15.65, 15.2, 13.86, 12.96, 12.52, 12.96, 14.3, 15.2, 15.65, 16.09, 16.54, 16.54, 16.54, 16.99, 17.88, 18.33, 18.78, 18.78, 18.78, 4.47, 4.47, 4.47, 4.92, 4.92, 5.36, 5.81, 5.81, 6.26, 6.26, 6.71, 6.71, 7.15, 7.15, 7.6, 7.6, 8.05, 8.05, 8.05, 8.49, 8.94, 8.94, 8.94, 9.39, 9.39, 9.39, 9.83, 9.83, 9.83, 10.28, 10.28, 10.73, 10.73, 10.73, 11.18, 11.18, 11.62, 11.62, 11.62, 12.07, 12.07, 12.52, 12.52, 12.96, 12.96, 12.96, 13.41, 13.41, 13.41, 13.86, 13.86, 13.86, 13.86, 14.3, 14.3, 14.3, 14.3, 14.75, 14.75, 14.75, 15.2, 15.2, 15.2, 15.65, 15.65, 15.65, 15.65, 16.09, 16.09, 16.09, 16.54, 16.54, 16.54, 16.99, 17.43, 17.88, 17.88, 16.54, 15.65, 15.65, 15.65, 14.75, 13.41, 12.52, 12.52, 13.41, 14.75, 15.65, 16.09, 16.09, 16.09, 16.54, 17.43, 18.33, 18.78, 18.78, 18.78, 18.78, 4.02, 4.02, 4.47, 4.92, 4.92, 5.36, 5.36, 5.81, 5.81, 6.26, 6.26, 6.71, 6.71, 6.71, 7.15, 7.15, 7.6, 7.6, 8.05, 8.49, 8.49, 8.49, 8.94, 8.94, 8.94, 9.39, 9.39, 9.39, 9.83, 9.83, 9.83, 10.28, 10.28, 10.73, 10.73, 11.18, 11.18, 11.18, 11.62, 11.62, 12.07, 12.07, 12.52, 12.52, 12.96, 12.96, 12.96, 12.96, 13.41, 13.41, 13.41, 13.86, 13.86, 13.86, 14.3, 14.3, 14.3, 14.3, 14.75, 14.75, 14.75, 15.2, 15.2, 15.2, 15.65, 15.65, 15.65, 15.65, 16.09, 16.09, 16.09, 16.09, 16.54, 16.54, 16.99, 17.43, 17.88, 17.43, 16.54, 15.65, 15.65, 14.75, 13.41, 12.07, 11.62, 12.52, 14.3, 15.2, 16.09, 16.09, 16.54, 17.88, 18.33, 18.78, 18.78, 18.78, 18.78, 18.78, 4.02, 4.02, 4.47, 4.47, 4.92, 4.92, 4.92, 5.36, 5.81, 5.81, 5.81, 6.26, 6.26, 6.71, 6.71, 7.15, 7.15, 7.15, 7.6, 7.6, 8.05, 8.49, 8.49, 8.49, 8.94, 8.94, 8.94, 9.39, 9.39, 9.39, 9.83, 9.83, 10.28, 10.28, 10.28, 10.73, 10.73, 11.18, 11.18, 11.62, 11.62, 12.07, 12.07, 12.52, 12.52, 12.52, 12.96, 12.96, 12.96, 13.41, 13.41, 13.41, 13.86, 13.86, 13.86, 14.3, 14.3, 14.3, 14.3, 14.75, 14.75, 15.2, 15.2, 15.2, 15.65, 15.65, 15.65, 15.65, 15.65, 16.09, 16.09, 16.09, 16.09, 16.54, 16.99, 16.99, 17.43, 17.43, 17.43, 16.54, 15.65, 14.75, 13.41, 11.62, 11.18, 12.07, 13.86, 15.2, 16.09, 16.54, 17.43, 17.88, 18.33, 18.78, 18.78, 18.78, 18.78, 18.78, 4.02, 4.02, 4.02, 4.47, 4.47, 4.47, 4.92, 4.92, 5.36, 5.36, 5.81, 5.81, 6.26, 6.26, 6.26, 6.71, 6.71, 7.15, 7.15, 7.6, 7.6, 8.05, 8.05, 8.49, 8.49, 8.49, 8.94, 8.94, 8.94, 9.39, 9.39, 9.83, 9.83, 9.83, 10.28, 10.28, 10.73, 10.73, 11.18, 11.18, 11.62, 11.62, 12.07, 12.07, 12.07, 12.52, 12.52, 12.52, 12.96, 12.96, 13.41, 13.41, 13.41, 13.86, 13.86, 13.86, 13.86, 14.3, 14.3, 14.75, 14.75, 14.75, 15.2, 15.2, 15.2, 15.2, 15.65, 15.65, 15.65, 15.65, 15.65, 16.09, 16.09, 16.54, 16.54, 16.99, 16.99, 17.43, 17.43, 16.99, 16.09, 15.2, 13.41, 11.62, 11.18, 12.52, 13.86, 15.65, 16.09, 16.99, 17.43, 17.88, 18.33, 18.78, 18.78, 18.78, 18.78, 18.78, 3.58, 3.58, 4.02, 4.02, 4.02, 4.47, 4.47, 4.92, 4.92, 5.36, 5.36, 5.36, 5.81, 5.81, 6.26, 6.26, 6.26, 6.71, 6.71, 7.15, 7.15, 7.6, 7.6, 8.05, 8.05, 8.49, 8.49, 8.49, 8.94, 8.94, 9.39, 9.39, 9.39, 9.83, 9.83, 10.28, 10.28, 10.73, 10.73, 11.18, 11.18, 11.62, 11.62, 11.62, 12.07, 12.07, 12.52, 12.52, 12.52, 12.96, 12.96, 13.41, 13.41, 13.41, 13.86, 13.86, 13.86, 14.3, 14.3, 14.3, 14.75, 14.75, 14.75, 15.2, 15.2, 15.2, 15.2, 15.2, 15.65, 15.65, 15.65, 15.65, 16.09, 16.09, 16.54, 16.54, 16.99, 16.99, 16.99, 16.99, 16.54, 15.65, 13.86, 11.62, 11.62, 12.96, 14.3, 15.65, 16.54, 17.43, 17.43, 17.88, 18.33, 18.33, 18.33, 18.33, 18.33, 18.33, 3.58, 3.58, 3.58, 3.58, 3.58, 4.02, 4.02, 4.47, 4.47, 4.92, 4.92, 5.36, 5.36, 5.36, 5.81, 5.81, 6.26, 6.26, 6.71, 6.71, 6.71, 7.15, 7.6, 7.6, 8.05, 8.05, 8.05, 8.49, 8.49, 8.49, 8.94, 8.94, 9.39, 9.39, 9.83, 9.83, 10.28, 10.28, 10.73, 10.73, 11.18, 11.18, 11.18, 11.62, 11.62, 12.07, 12.07, 12.52, 12.52, 12.52, 12.96, 12.96, 12.96, 13.41, 13.41, 13.86, 13.86, 13.86, 14.3, 14.3, 14.3, 14.75, 14.75, 14.75, 14.75, 14.75, 15.2, 15.2, 15.2, 15.2, 15.65, 15.65, 16.09, 16.09, 16.09, 16.54, 16.54, 16.99, 16.99, 16.99, 16.54, 16.09, 14.3, 11.62, 11.18, 12.96, 15.2, 15.65, 16.09, 16.99, 17.43, 17.43, 17.88, 17.88, 18.33, 18.33, 18.33, 18.33, 3.13, 2.68, 3.13, 3.13, 3.58, 3.58, 4.02, 4.02, 4.02, 4.47, 4.47, 4.92, 4.92, 5.36, 5.36, 5.81, 5.81, 5.81, 6.26, 6.26, 6.71, 7.15, 7.15, 7.15, 7.6, 7.6, 8.05, 8.05, 8.49, 8.49, 8.49, 8.94, 8.94, 9.39, 9.39, 9.83, 9.83, 10.28, 10.28, 10.73, 10.73, 10.73, 11.18, 11.18, 11.62, 11.62, 12.07, 12.07, 12.52, 12.52, 12.52, 12.96, 12.96, 13.41, 13.41, 13.41, 13.86, 13.86, 13.86, 14.3, 14.3, 14.3, 14.75, 14.75, 14.75, 14.75, 14.75, 14.75, 14.75, 15.2, 15.2, 15.65, 16.09, 16.09, 16.09, 16.54, 16.54, 16.54, 16.99, 16.99, 16.54, 16.09, 15.2, 12.96, 10.73, 13.41, 14.75, 15.65, 16.09, 16.09, 16.54, 16.99, 17.43, 17.43, 17.88, 17.88, 17.88, 17.88, 2.68, 2.68, 2.68, 3.13, 3.13, 3.13, 3.58, 3.58, 4.02, 4.02, 4.47, 4.47, 4.47, 4.92, 4.92, 5.36, 5.36, 5.81, 5.81, 6.26, 6.26, 6.71, 6.71, 7.15, 7.15, 7.6, 7.6, 8.05, 8.05, 8.05, 8.49, 8.49, 8.94, 8.94, 9.39, 9.39, 9.83, 9.83, 10.28, 10.28, 10.28, 10.73, 10.73, 11.18, 11.18, 11.62, 11.62, 12.07, 12.07, 12.52, 12.52, 12.52, 12.96, 12.96, 12.96, 13.41, 13.41, 13.86, 13.86, 13.86, 14.3, 14.3, 14.3, 14.3, 14.75, 14.75, 14.75, 14.75, 14.75, 14.75, 15.2, 15.2, 15.65, 16.09, 16.09, 16.54, 16.54, 16.54, 16.99, 16.99, 16.99, 16.54, 15.65, 14.3, 11.18, 12.52, 13.86, 15.2, 15.65, 15.65, 15.65, 16.09, 16.99, 16.99, 17.43, 17.43, 17.43, 17.43, 2.24, 2.24, 2.24, 2.68, 2.68, 3.13, 3.13, 3.13, 3.58, 3.58, 4.02, 4.02, 4.47, 4.47, 4.92, 4.92, 5.36, 5.36, 5.81, 5.81, 6.26, 6.26, 6.71, 6.71, 7.15, 7.15, 7.6, 7.6, 8.05, 8.05, 8.05, 8.49, 8.49, 8.94, 8.94, 9.39, 9.39, 9.83, 9.83, 9.83, 10.28, 10.28, 10.73, 10.73, 11.18, 11.18, 11.62, 11.62, 12.07, 12.07, 12.07, 12.52, 12.52, 12.96, 12.96, 12.96, 13.41, 13.41, 13.86, 13.86, 13.86, 14.3, 14.3, 14.3, 14.3, 14.3, 14.3, 14.75, 14.75, 14.75, 14.75, 14.75, 15.2, 15.2, 16.09, 16.09, 16.54, 16.54, 16.54, 16.99, 16.54, 16.54, 16.09, 13.41, 11.62, 12.07, 13.41, 14.75, 15.2, 15.65, 15.65, 15.65, 16.54, 16.54, 16.99, 17.43, 17.43, 17.43, 1.79, 1.79, 2.24, 2.24, 2.68, 2.68, 2.68, 3.13, 3.13, 3.58, 3.58, 4.02, 4.02, 4.47, 4.47, 4.92, 4.92, 5.36, 5.36, 5.81, 5.81, 5.81, 6.26, 6.71, 6.71, 7.15, 7.15, 7.6, 7.6, 8.05, 8.05, 8.05, 8.49, 8.49, 8.94, 8.94, 9.39, 9.39, 9.39, 9.83, 9.83, 10.28, 10.28, 10.73, 10.73, 11.18, 11.18, 11.62, 11.62, 12.07, 12.07, 12.07, 12.52, 12.52, 12.96, 12.96, 13.41, 13.41, 13.41, 13.86, 13.86, 13.86, 13.86, 13.86, 14.3, 14.3, 14.3, 14.3, 14.75, 14.75, 14.75, 14.75, 14.75, 15.2, 15.2, 16.09, 16.09, 16.09, 16.54, 16.54, 16.54, 16.54, 15.2, 13.86, 12.07, 12.07, 13.41, 14.75, 15.2, 15.2, 15.2, 15.65, 16.09, 16.54, 16.99, 16.99, 16.99, 16.99, 1.79, 1.79, 1.79, 2.24, 2.24, 2.24, 2.68, 2.68, 3.13, 3.13, 3.58, 3.58, 4.02, 4.02, 4.47, 4.47, 4.92, 4.92, 5.36, 5.36, 5.81, 5.81, 5.81, 6.26, 6.71, 6.71, 7.15, 7.15, 7.6, 7.6, 8.05, 8.05, 8.49, 8.49, 8.49, 8.94, 8.94, 9.39, 9.39, 9.39, 9.83, 9.83, 10.28, 10.73, 10.73, 11.18, 11.18, 11.18, 11.62, 11.62, 11.62, 12.07, 12.52, 12.52, 12.52, 12.96, 12.96, 13.41, 13.41, 13.41, 13.41, 13.86, 13.86, 13.86, 13.86, 13.86, 14.3, 14.3, 14.3, 14.3, 14.75, 14.75, 14.75, 15.2, 15.2, 15.65, 16.09, 16.09, 16.09, 16.09, 16.09, 16.09, 15.65, 13.86, 12.07, 12.07, 13.41, 14.75, 14.75, 14.75, 14.75, 15.2, 15.65, 16.09, 16.54, 16.54, 16.54, 16.54, 1.79, 1.79, 1.79, 1.79, 2.24, 2.24, 2.24, 2.68, 2.68, 3.13, 3.13, 3.58, 3.58, 4.02, 4.02, 4.47, 4.47, 4.92, 4.92, 5.36, 5.36, 5.81, 5.81, 6.26, 6.26, 6.71, 6.71, 7.15, 7.15, 7.6, 7.6, 8.05, 8.05, 8.49, 8.49, 8.49, 8.94, 8.94, 9.39, 9.39, 9.83, 9.83, 10.28, 10.28, 10.73, 10.73, 10.73, 11.18, 11.18, 11.62, 11.62, 11.62, 12.07, 12.52, 12.52, 12.52, 12.96, 12.96, 12.96, 13.41, 13.41, 13.41, 13.41, 13.86, 13.86, 13.86, 13.86, 14.3, 14.3, 14.3, 14.75, 14.75, 14.75, 15.2, 15.2, 15.65, 15.65, 16.09, 16.09, 16.09, 16.09, 16.09, 15.65, 14.75, 12.52, 12.07, 13.41, 14.75, 14.75, 14.75, 14.75, 15.2, 15.2, 15.65, 16.09, 16.54, 16.54, 16.54, 1.34, 1.34, 1.79, 1.79, 1.79, 2.24, 2.24, 2.24, 2.68, 2.68, 3.13, 3.13, 3.58, 3.58, 4.02, 4.02, 4.47, 4.47, 4.92, 4.92, 5.36, 5.36, 5.81, 6.26, 6.26, 6.71, 6.71, 7.15, 7.15, 7.6, 7.6, 7.6, 8.05, 8.05, 8.49, 8.49, 8.49, 8.94, 8.94, 9.39, 9.39, 9.83, 9.83, 10.28, 10.28, 10.73, 10.73, 10.73, 11.18, 11.18, 11.62, 11.62, 12.07, 12.07, 12.52, 12.52, 12.52, 12.96, 12.96, 12.96, 13.41, 13.41, 13.41, 13.41, 13.41, 13.86, 13.86, 13.86, 14.3, 14.3, 14.3, 14.75, 14.75, 14.75, 15.2, 15.2, 15.65, 16.09, 16.09, 16.09, 16.09, 16.09, 16.09, 15.65, 13.86, 12.07, 13.41, 14.3, 14.3, 14.3, 14.3, 14.75, 14.75, 15.2, 15.65, 16.09, 16.09, 16.09, 1.34, 1.34, 1.34, 1.79, 1.79, 1.79, 2.24, 2.24, 2.68, 2.68, 3.13, 3.13, 3.58, 3.58, 3.58, 4.02, 4.02, 4.47, 4.47, 4.92, 4.92, 5.36, 5.36, 5.81, 6.26, 6.26, 6.71, 6.71, 7.15, 7.15, 7.6, 7.6, 7.6, 8.05, 8.05, 8.49, 8.49, 8.94, 8.94, 9.39, 9.39, 9.39, 9.83, 9.83, 10.28, 10.28, 10.28, 10.73, 10.73, 11.18, 11.18, 11.62, 12.07, 12.07, 12.07, 12.52, 12.52, 12.52, 12.96, 12.96, 12.96, 12.96, 12.96, 13.41, 13.41, 13.41, 13.86, 13.86, 13.86, 14.3, 14.3, 14.75, 14.75, 14.75, 15.2, 15.2, 15.2, 15.65, 16.09, 16.09, 16.09, 16.09, 16.09, 16.09, 14.75, 12.96, 12.96, 13.86, 13.86, 13.86, 14.3, 14.3, 14.75, 14.75, 15.2, 15.65, 15.65, 15.65, 1.34, 1.34, 1.34, 1.79, 1.79, 1.79, 2.24, 2.24, 2.24, 2.68, 2.68, 3.13, 3.13, 3.58, 3.58, 4.02, 4.02, 4.47, 4.47, 4.92, 4.92, 5.36, 5.36, 5.81, 5.81, 6.26, 6.26, 6.71, 6.71, 7.15, 7.15, 7.6, 7.6, 8.05, 8.05, 8.05, 8.49, 8.49, 8.94, 8.94, 9.39, 9.39, 9.39, 9.83, 9.83, 10.28, 10.28, 10.28, 10.73, 10.73, 11.18, 11.62, 11.62, 12.07, 12.07, 12.07, 12.52, 12.52, 12.52, 12.52, 12.96, 12.96, 12.96, 12.96, 13.41, 13.41, 13.41, 13.86, 13.86, 14.3, 14.3, 14.75, 14.75, 14.75, 15.2, 15.2, 15.2, 15.2, 15.65, 16.09, 16.09, 16.09, 16.09, 16.09, 15.65, 14.3, 13.41, 13.41, 13.86, 13.86, 13.86, 14.3, 14.75, 14.75, 15.2, 15.2, 15.2, 15.2, 1.34, 1.34, 1.34, 1.79, 1.79, 1.79, 2.24, 2.24, 2.24, 2.68, 2.68, 3.13, 3.13, 3.58, 3.58, 3.58, 4.02, 4.02, 4.47, 4.47, 4.92, 4.92, 5.36, 5.36, 5.81, 6.26, 6.26, 6.71, 6.71, 7.15, 7.15, 7.15, 7.6, 7.6, 8.05, 8.05, 8.49, 8.49, 8.49, 8.94, 8.94, 9.39, 9.39, 9.39, 9.83, 9.83, 10.28, 10.28, 10.73, 10.73, 11.18, 11.62, 11.62, 11.62, 12.07, 12.07, 12.07, 12.52, 12.52, 12.52, 12.52, 12.52, 12.96, 12.96, 12.96, 13.41, 13.41, 13.41, 13.86, 14.3, 14.3, 14.3, 14.75, 14.75, 14.75, 15.2, 15.2, 15.65, 15.65, 15.65, 16.09, 16.09, 16.09, 16.09, 16.09, 14.75, 13.86, 13.41, 13.41, 13.41, 13.41, 13.86, 14.3, 14.75, 14.75, 15.2, 15.2, 15.2, 1.34, 1.34, 1.34, 1.79, 1.79, 1.79, 2.24, 2.24, 2.24, 2.68, 2.68, 3.13, 3.13, 3.13, 3.58, 3.58, 4.02, 4.02, 4.47, 4.47, 4.92, 4.92, 5.36, 5.36, 5.81, 6.26, 6.26, 6.71, 6.71, 6.71, 7.15, 7.15, 7.6, 7.6, 7.6, 8.05, 8.05, 8.49, 8.49, 8.49, 8.94, 8.94, 9.39, 9.39, 9.39, 9.83, 9.83, 10.28, 10.28, 10.73, 11.18, 11.18, 11.62, 11.62, 11.62, 12.07, 12.07, 12.07, 12.07, 12.52, 12.52, 12.52, 12.52, 12.96, 12.96, 12.96, 13.41, 13.41, 13.86, 13.86, 14.3, 14.3, 14.75, 14.75, 14.75, 14.75, 15.2, 15.2, 15.65, 15.65, 15.65, 16.09, 16.09, 16.09, 16.09, 15.2, 14.3, 13.41, 13.41, 12.96, 12.96, 13.41, 13.86, 14.3, 14.75, 14.75, 14.75, 14.75, 1.34, 1.34, 1.34, 1.79, 1.79, 1.79, 2.24, 2.24, 2.24, 2.68, 2.68, 3.13, 3.13, 3.13, 3.58, 3.58, 4.02, 4.02, 4.47, 4.47, 4.92, 4.92, 5.36, 5.36, 5.81, 6.26, 6.26, 6.71, 6.71, 6.71, 7.15, 7.15, 7.6, 7.6, 7.6, 8.05, 8.05, 8.49, 8.49, 8.49, 8.94, 8.94, 9.39, 9.39, 9.39, 9.83, 9.83, 10.28, 10.28, 10.73, 11.18, 11.18, 11.62, 11.62, 11.62, 12.07, 12.07, 12.07, 12.07, 12.52, 12.52, 12.52, 12.52, 12.96, 12.96, 12.96, 13.41, 13.41, 13.86, 13.86, 14.3, 14.3, 14.75, 14.75, 14.75, 14.75, 15.2, 15.2, 15.65, 15.65, 15.65, 16.09, 16.09, 16.09, 16.09, 16.09, 15.2, 13.86, 13.41, 12.96, 12.96, 12.96, 13.41, 13.86, 14.3, 14.75, 14.75, 14.75]}]